Time,TemperatureF,DewpointF,PressureIn,WindDirection,WindDirectionDegrees,WindSpeedMPH,WindSpeedGustMPH,Humidity,HourlyPrecipIn,Conditions,Clouds,dailyrainin,SoftwareType,DateUTC
2013-08-07 00:00:00,64.4,41.3,29.83,West,270,8.9,12.8,43,0.00,,,0.00,WUHU216HW,2013-08-07 06:00:00,
2013-08-07 00:01:00,64.6,41.5,29.83,WSW,248,11.4,12.8,43,0.00,,,0.00,WUHU216HW,2013-08-07 06:01:00,
2013-08-07 00:04:00,64.6,41.0,29.83,WSW,248,6.3,12.1,42,0.00,,,0.00,WUHU216HW,2013-08-07 06:04:00,
2013-08-07 00:05:00,64.6,41.0,29.83,WSW,248,7.8,12.1,42,0.00,,,0.00,WUHU216HW,2013-08-07 06:05:00,
2013-08-07 00:06:00,64.8,41.0,29.84,WSW,248,5.8,11.4,42,0.00,,,0.00,WUHU216HW,2013-08-07 06:06:00,
2013-08-07 00:09:00,64.8,40.5,29.84,WSW,248,6.9,11.4,41,0.00,,,0.00,WUHU216HW,2013-08-07 06:09:00,
2013-08-07 00:10:00,64.8,41.0,29.84,West,270,6.7,11.4,42,0.00,,,0.00,WUHU216HW,2013-08-07 06:10:00,
2013-08-07 00:11:00,65.0,40.7,29.84,WSW,248,8.7,11.4,41,0.00,,,0.00,WUHU216HW,2013-08-07 06:11:00,
2013-08-07 00:12:00,65.0,40.7,29.84,West,270,7.6,11.4,41,0.00,,,0.00,WUHU216HW,2013-08-07 06:12:00,
2013-08-07 00:15:00,65.0,40.7,29.84,WSW,248,7.6,8.7,41,0.00,,,0.00,WUHU216HW,2013-08-07 06:15:00,
2013-08-07 00:16:00,64.8,40.5,29.84,WSW,248,7.6,8.7,41,0.00,,,0.00,WUHU216HW,2013-08-07 06:16:00,
2013-08-07 00:17:00,64.8,40.5,29.84,WSW,248,6.9,8.7,41,0.00,,,0.00,WUHU216HW,2013-08-07 06:17:00,
2013-08-07 00:20:00,64.6,40.3,29.83,WSW,248,8.3,8.7,41,0.00,,,0.00,WUHU216HW,2013-08-07 06:20:00,
2013-08-07 00:21:00,64.6,40.3,29.84,WSW,248,7.2,8.7,41,0.00,,,0.00,WUHU216HW,2013-08-07 06:21:00,
2013-08-07 00:22:00,64.6,40.3,29.84,WSW,248,8.5,8.7,41,0.00,,,0.00,WUHU216HW,2013-08-07 06:22:00,
2013-08-07 00:26:00,64.4,40.1,29.84,WSW,248,6.3,8.7,41,0.00,,,0.00,WUHU216HW,2013-08-07 06:26:00,
2013-08-07 00:27:00,64.4,40.1,29.84,West,270,8.1,8.7,41,0.00,,,0.00,WUHU216HW,2013-08-07 06:27:00,
2013-08-07 00:31:00,64.4,40.1,29.84,WSW,248,5.4,9.8,41,0.00,,,0.00,WUHU216HW,2013-08-07 06:31:00,
2013-08-07 00:32:00,64.4,40.1,29.84,West,270,5.6,9.8,41,0.00,,,0.00,WUHU216HW,2013-08-07 06:32:00,
2013-08-07 00:36:00,64.4,40.1,29.84,West,270,7.4,9.8,41,0.00,,,0.00,WUHU216HW,2013-08-07 06:36:00,
2013-08-07 00:37:00,64.4,39.6,29.84,WSW,248,6.7,9.8,40,0.00,,,0.00,WUHU216HW,2013-08-07 06:37:00,
2013-08-07 00:41:00,64.6,40.3,29.84,WSW,248,6.0,8.9,41,0.00,,,0.00,WUHU216HW,2013-08-07 06:41:00,
2013-08-07 00:42:00,64.4,40.1,29.84,WSW,248,5.8,8.9,41,0.00,,,0.00,WUHU216HW,2013-08-07 06:42:00,
2013-08-07 00:43:00,64.4,40.1,29.84,SSW,203,4.0,8.9,41,0.00,,,0.00,WUHU216HW,2013-08-07 06:43:00,
2013-08-07 00:46:00,64.4,40.1,29.84,SSW,203,1.1,6.9,41,0.00,,,0.00,WUHU216HW,2013-08-07 06:46:00,
2013-08-07 00:47:00,64.3,40.1,29.84,SW,225,1.1,6.7,41,0.00,,,0.00,WUHU216HW,2013-08-07 06:47:00,
2013-08-07 00:48:00,64.1,39.9,29.84,SE,135,1.1,6.7,41,0.00,,,0.00,WUHU216HW,2013-08-07 06:48:00,
2013-08-07 00:51:00,63.9,40.2,29.84,SW,225,3.1,6.3,42,0.00,,,0.00,WUHU216HW,2013-08-07 06:51:00,
2013-08-07 00:52:00,63.7,40.2,29.84,SW,225,3.6,6.3,42,0.00,,,0.00,WUHU216HW,2013-08-07 06:52:00,
2013-08-07 00:53:00,63.7,40.2,29.84,SW,225,3.6,4.0,42,0.00,,,0.00,WUHU216HW,2013-08-07 06:53:00,
2013-08-07 00:56:00,63.2,40.8,29.84,SW,225,3.8,4.5,44,0.00,,,0.00,WUHU216HW,2013-08-07 06:56:00,
2013-08-07 00:57:00,63.0,40.6,29.84,SW,225,3.6,4.5,44,0.00,,,0.00,WUHU216HW,2013-08-07 06:57:00,
2013-08-07 00:58:00,63.0,41.2,29.84,SW,225,3.1,4.5,45,0.00,,,0.00,WUHU216HW,2013-08-07 06:58:00,
2013-08-07 01:01:00,62.5,41.3,29.84,WSW,248,3.6,4.5,46,0.00,,,0.00,WUHU216HW,2013-08-07 07:01:00,
2013-08-07 01:02:00,62.5,41.3,29.84,WSW,248,3.6,4.5,46,0.00,,,0.00,WUHU216HW,2013-08-07 07:02:00,
2013-08-07 01:03:00,62.3,41.7,29.84,WSW,248,4.7,4.7,47,0.00,,,0.00,WUHU216HW,2013-08-07 07:03:00,
2013-08-07 01:07:00,61.7,42.4,29.84,WSW,248,5.4,5.4,49,0.00,,,0.00,WUHU216HW,2013-08-07 07:07:00,
2013-08-07 01:08:00,61.6,42.2,29.84,SW,225,4.7,5.4,49,0.00,,,0.00,WUHU216HW,2013-08-07 07:08:00,
2013-08-07 01:09:00,61.6,41.6,29.84,WSW,248,4.7,5.4,48,0.00,,,0.00,WUHU216HW,2013-08-07 07:09:00,
2013-08-07 01:12:00,61.4,42.0,29.84,WSW,248,4.5,5.4,49,0.00,,,0.00,WUHU216HW,2013-08-07 07:12:00,
2013-08-07 01:13:00,61.2,41.9,29.84,West,270,4.7,5.4,49,0.00,,,0.00,WUHU216HW,2013-08-07 07:13:00,
2013-08-07 01:14:00,61.2,41.9,29.84,WSW,248,4.0,5.4,49,0.00,,,0.00,WUHU216HW,2013-08-07 07:14:00,
2013-08-07 01:17:00,61.2,42.9,29.84,West,270,5.4,5.4,51,0.00,,,0.00,WUHU216HW,2013-08-07 07:17:00,
2013-08-07 01:18:00,61.2,42.9,29.84,West,270,5.4,5.4,51,0.00,,,0.00,WUHU216HW,2013-08-07 07:18:00,
2013-08-07 01:19:00,61.0,42.3,29.84,West,270,6.0,6.0,50,0.00,,,0.00,WUHU216HW,2013-08-07 07:19:00,
2013-08-07 01:22:00,61.0,41.1,29.84,West,270,6.7,7.8,48,0.00,,,0.00,WUHU216HW,2013-08-07 07:22:00,
2013-08-07 01:23:00,61.0,41.1,29.84,West,270,5.4,7.8,48,0.00,,,0.00,WUHU216HW,2013-08-07 07:23:00,
2013-08-07 01:24:00,61.0,41.1,29.85,WSW,248,3.1,7.8,48,0.00,,,0.00,WUHU216HW,2013-08-07 07:24:00,
2013-08-07 01:28:00,61.2,40.7,29.84,West,270,4.0,7.8,47,0.00,,,0.00,WUHU216HW,2013-08-07 07:28:00,
2013-08-07 01:29:00,61.2,40.7,29.85,West,270,3.8,7.8,47,0.00,,,0.00,WUHU216HW,2013-08-07 07:29:00,
2013-08-07 01:33:00,61.0,40.6,29.85,West,270,4.7,5.4,47,0.00,,,0.00,WUHU216HW,2013-08-07 07:33:00,
2013-08-07 01:34:00,60.8,40.4,29.84,West,270,5.4,5.4,47,0.00,,,0.00,WUHU216HW,2013-08-07 07:34:00,
2013-08-07 01:35:00,60.8,40.4,29.84,WNW,293,4.3,5.4,47,0.00,,,0.00,WUHU216HW,2013-08-07 07:35:00,
2013-08-07 01:38:00,60.7,40.8,29.85,SW,225,5.4,5.4,48,0.00,,,0.00,WUHU216HW,2013-08-07 07:38:00,
2013-08-07 01:39:00,60.5,40.7,29.84,WSW,248,6.5,6.5,48,0.00,,,0.00,WUHU216HW,2013-08-07 07:39:00,
2013-08-07 01:40:00,60.5,40.7,29.84,WSW,248,6.0,6.5,48,0.00,,,0.00,WUHU216HW,2013-08-07 07:40:00,
2013-08-07 01:41:00,60.3,40.5,29.84,WSW,248,6.7,6.7,48,0.00,,,0.00,WUHU216HW,2013-08-07 07:41:00,
2013-08-07 01:43:00,60.1,40.9,29.84,WSW,248,5.8,6.9,49,0.00,,,0.00,WUHU216HW,2013-08-07 07:43:00,
2013-08-07 01:45:00,59.9,40.8,29.84,WSW,248,6.7,6.9,49,0.00,,,0.00,WUHU216HW,2013-08-07 07:45:00,
2013-08-07 01:46:00,59.9,40.8,29.84,West,270,6.3,6.9,49,0.00,,,0.00,WUHU216HW,2013-08-07 07:46:00,
2013-08-07 01:48:00,59.9,40.8,29.84,West,270,7.2,7.6,49,0.00,,,0.00,WUHU216HW,2013-08-07 07:48:00,
2013-08-07 01:50:00,59.9,40.8,29.84,West,270,7.8,7.8,49,0.00,,,0.00,WUHU216HW,2013-08-07 07:50:00,
2013-08-07 01:51:00,59.9,40.8,29.84,West,270,6.0,7.8,49,0.00,,,0.00,WUHU216HW,2013-08-07 07:51:00,
2013-08-07 01:53:00,59.9,40.8,29.84,WSW,248,6.9,7.8,49,0.00,,,0.00,WUHU216HW,2013-08-07 07:53:00,
2013-08-07 01:54:00,59.9,40.8,29.84,WSW,248,6.7,7.8,49,0.00,,,0.00,WUHU216HW,2013-08-07 07:54:00,
2013-08-07 01:55:00,59.9,40.8,29.84,WSW,248,6.5,7.8,49,0.00,,,0.00,WUHU216HW,2013-08-07 07:55:00,
2013-08-07 01:56:00,59.9,40.8,29.84,WSW,248,5.8,7.8,49,0.00,,,0.00,WUHU216HW,2013-08-07 07:56:00,
2013-08-07 01:59:00,59.9,40.8,29.84,WSW,248,5.8,7.8,49,0.00,,,0.00,WUHU216HW,2013-08-07 07:59:00,
2013-08-07 02:00:00,59.9,40.8,29.84,West,270,6.9,7.4,49,0.00,,,0.00,WUHU216HW,2013-08-07 08:00:00,
2013-08-07 02:01:00,59.9,40.8,29.84,WSW,248,7.4,7.4,49,0.00,,,0.00,WUHU216HW,2013-08-07 08:01:00,
2013-08-07 02:04:00,59.9,40.8,29.84,WSW,248,6.7,7.4,49,0.00,,,0.00,WUHU216HW,2013-08-07 08:04:00,
2013-08-07 02:05:00,59.9,40.8,29.84,West,270,8.1,8.3,49,0.00,,,0.00,WUHU216HW,2013-08-07 08:05:00,
2013-08-07 02:06:00,59.9,40.8,29.84,WSW,248,7.2,8.3,49,0.00,,,0.00,WUHU216HW,2013-08-07 08:06:00,
2013-08-07 02:07:00,59.9,40.8,29.84,WSW,248,8.5,8.5,49,0.00,,,0.00,WUHU216HW,2013-08-07 08:07:00,
2013-08-07 02:09:00,59.9,40.8,29.84,WSW,248,8.5,9.2,49,0.00,,,0.00,WUHU216HW,2013-08-07 08:09:00,
2013-08-07 02:10:00,59.9,40.8,29.84,WSW,248,7.6,9.2,49,0.00,,,0.00,WUHU216HW,2013-08-07 08:10:00,
2013-08-07 02:12:00,60.1,40.3,29.84,West,270,8.1,9.6,48,0.00,,,0.00,WUHU216HW,2013-08-07 08:12:00,
2013-08-07 02:14:00,60.1,40.3,29.84,WSW,248,8.5,9.6,48,0.00,,,0.00,WUHU216HW,2013-08-07 08:14:00,
2013-08-07 02:15:00,60.1,40.3,29.84,West,270,9.2,9.6,48,0.00,,,0.00,WUHU216HW,2013-08-07 08:15:00,
2013-08-07 02:17:00,60.1,40.9,29.84,WSW,248,8.9,9.6,49,0.00,,,0.00,WUHU216HW,2013-08-07 08:17:00,
2013-08-07 02:19:00,60.1,40.9,29.84,WSW,248,8.3,9.6,49,0.00,,,0.00,WUHU216HW,2013-08-07 08:19:00,
2013-08-07 02:20:00,60.1,40.9,29.84,WSW,248,8.7,9.6,49,0.00,,,0.00,WUHU216HW,2013-08-07 08:20:00,
2013-08-07 02:23:00,59.8,40.6,29.84,West,270,7.6,9.4,49,0.00,,,0.00,WUHU216HW,2013-08-07 08:23:00,
2013-08-07 02:24:00,59.8,40.6,29.84,West,270,7.2,9.4,49,0.00,,,0.00,WUHU216HW,2013-08-07 08:24:00,
2013-08-07 02:25:00,59.8,40.6,29.84,West,270,9.2,9.4,49,0.00,,,0.00,WUHU216HW,2013-08-07 08:25:00,
2013-08-07 02:26:00,59.8,40.6,29.84,West,270,7.6,9.4,49,0.00,,,0.00,WUHU216HW,2013-08-07 08:26:00,
2013-08-07 02:28:00,59.9,40.8,29.84,West,270,7.6,9.4,49,0.00,,,0.00,WUHU216HW,2013-08-07 08:28:00,
2013-08-07 02:29:00,59.9,40.8,29.84,WSW,248,8.3,9.4,49,0.00,,,0.00,WUHU216HW,2013-08-07 08:29:00,
2013-08-07 02:30:00,59.9,40.8,29.84,West,270,8.1,9.4,49,0.00,,,0.00,WUHU216HW,2013-08-07 08:30:00,
2013-08-07 02:31:00,59.9,40.8,29.84,WSW,248,8.1,9.4,49,0.00,,,0.00,WUHU216HW,2013-08-07 08:31:00,
2013-08-07 02:33:00,59.8,40.6,29.84,WSW,248,7.6,9.4,49,0.00,,,0.00,WUHU216HW,2013-08-07 08:33:00,
2013-08-07 02:34:00,59.8,40.6,29.84,West,270,6.3,9.4,49,0.00,,,0.00,WUHU216HW,2013-08-07 08:34:00,
2013-08-07 02:35:00,59.8,40.6,29.84,West,270,4.5,9.2,49,0.00,,,0.00,WUHU216HW,2013-08-07 08:35:00,
2013-08-07 02:36:00,59.8,40.6,29.84,West,270,7.4,9.2,49,0.00,,,0.00,WUHU216HW,2013-08-07 08:36:00,
2013-08-07 02:38:00,59.6,40.4,29.84,West,270,7.2,8.5,49,0.00,,,0.00,WUHU216HW,2013-08-07 08:38:00,
2013-08-07 02:39:00,59.6,41.0,29.84,WSW,248,6.9,8.1,50,0.00,,,0.00,WUHU216HW,2013-08-07 08:39:00,
2013-08-07 02:40:00,59.6,41.0,29.84,West,270,8.5,8.5,50,0.00,,,0.00,WUHU216HW,2013-08-07 08:40:00,
2013-08-07 02:41:00,59.6,41.0,29.84,WSW,248,6.9,8.5,50,0.00,,,0.00,WUHU216HW,2013-08-07 08:41:00,
2013-08-07 02:43:00,59.4,40.9,29.84,WSW,248,5.6,8.5,50,0.00,,,0.00,WUHU216HW,2013-08-07 08:43:00,
2013-08-07 02:45:00,59.4,40.9,29.84,WSW,248,6.3,8.5,50,0.00,,,0.00,WUHU216HW,2013-08-07 08:45:00,
2013-08-07 02:46:00,59.4,40.9,29.84,WSW,248,5.4,8.5,50,0.00,,,0.00,WUHU216HW,2013-08-07 08:46:00,
2013-08-07 02:48:00,59.4,40.9,29.84,WSW,248,6.7,8.5,50,0.00,,,0.00,WUHU216HW,2013-08-07 08:48:00,
2013-08-07 02:50:00,59.6,41.0,29.84,WSW,248,5.4,8.5,50,0.00,,,0.00,WUHU216HW,2013-08-07 08:50:00,
2013-08-07 02:51:00,59.6,41.0,29.84,WSW,248,6.3,7.8,50,0.00,,,0.00,WUHU216HW,2013-08-07 08:51:00,
2013-08-07 02:53:00,59.6,41.0,29.84,WSW,248,4.9,7.4,50,0.00,,,0.00,WUHU216HW,2013-08-07 08:53:00,
2013-08-07 02:54:00,59.6,41.0,29.84,WSW,248,4.7,7.4,50,0.00,,,0.00,WUHU216HW,2013-08-07 08:54:00,
2013-08-07 02:55:00,59.6,40.4,29.84,SW,225,4.3,6.9,49,0.00,,,0.00,WUHU216HW,2013-08-07 08:55:00,
2013-08-07 02:56:00,59.6,40.4,29.84,WSW,248,4.9,6.9,49,0.00,,,0.00,WUHU216HW,2013-08-07 08:56:00,
2013-08-07 02:57:00,59.6,40.4,29.84,WSW,248,3.8,6.9,49,0.00,,,0.00,WUHU216HW,2013-08-07 08:57:00,
2013-08-07 02:59:00,59.4,40.2,29.84,WSW,248,4.5,6.9,49,0.00,,,0.00,WUHU216HW,2013-08-07 08:59:00,
2013-08-07 03:00:00,59.4,40.2,29.84,WSW,248,4.5,6.3,49,0.00,,,0.00,WUHU216HW,2013-08-07 09:00:00,
2013-08-07 03:02:00,59.4,40.2,29.84,WSW,248,4.7,5.6,49,0.00,,,0.00,WUHU216HW,2013-08-07 09:02:00,
2013-08-07 03:04:00,59.4,40.9,29.84,SW,225,2.5,5.4,50,0.00,,,0.00,WUHU216HW,2013-08-07 09:04:00,
2013-08-07 03:06:00,59.2,40.1,29.84,WSW,248,3.4,5.1,49,0.00,,,0.00,WUHU216HW,2013-08-07 09:06:00,
2013-08-07 03:07:00,59.2,40.7,29.84,WSW,248,4.3,4.7,50,0.00,,,0.00,WUHU216HW,2013-08-07 09:07:00,
2013-08-07 03:09:00,59.0,40.5,29.84,WSW,248,3.8,4.7,50,0.00,,,0.00,WUHU216HW,2013-08-07 09:09:00,
2013-08-07 03:11:00,59.0,40.5,29.84,WSW,248,3.8,4.7,50,0.00,,,0.00,WUHU216HW,2013-08-07 09:11:00,
2013-08-07 03:12:00,58.9,40.3,29.84,SW,225,4.0,4.7,50,0.00,,,0.00,WUHU216HW,2013-08-07 09:12:00,
2013-08-07 03:14:00,58.7,40.1,29.84,WSW,248,4.0,4.7,50,0.00,,,0.00,WUHU216HW,2013-08-07 09:14:00,
2013-08-07 03:16:00,58.5,40.1,29.84,WSW,248,4.5,4.7,50,0.00,,,0.00,WUHU216HW,2013-08-07 09:16:00,
2013-08-07 03:17:00,58.5,40.1,29.84,WSW,248,3.6,4.7,50,0.00,,,0.00,WUHU216HW,2013-08-07 09:17:00,
2013-08-07 03:19:00,58.3,40.3,29.84,WSW,248,5.4,5.4,51,0.00,,,0.00,WUHU216HW,2013-08-07 09:19:00,
2013-08-07 03:20:00,58.3,40.3,29.84,WSW,248,5.4,5.4,51,0.00,,,0.00,WUHU216HW,2013-08-07 09:20:00,
2013-08-07 03:22:00,58.1,40.1,29.84,WSW,248,5.4,5.6,51,0.00,,,0.00,WUHU216HW,2013-08-07 09:22:00,
2013-08-07 03:23:00,58.0,40.0,29.84,WSW,248,5.4,5.6,51,0.00,,,0.00,WUHU216HW,2013-08-07 09:23:00,
2013-08-07 03:24:00,58.0,40.5,29.84,WSW,248,5.1,5.6,52,0.00,,,0.00,WUHU216HW,2013-08-07 09:24:00,
2013-08-07 03:25:00,58.0,40.5,29.84,SW,225,5.1,5.6,52,0.00,,,0.00,WUHU216HW,2013-08-07 09:25:00,
2013-08-07 03:27:00,57.8,40.3,29.84,WSW,248,4.7,5.6,52,0.00,,,0.00,WUHU216HW,2013-08-07 09:27:00,
2013-08-07 03:28:00,57.8,40.3,29.84,WSW,248,5.8,5.8,52,0.00,,,0.00,WUHU216HW,2013-08-07 09:28:00,
2013-08-07 03:29:00,57.8,40.8,29.84,WSW,248,5.4,5.8,53,0.00,,,0.00,WUHU216HW,2013-08-07 09:29:00,
2013-08-07 03:31:00,57.6,40.6,29.84,WSW,248,5.4,5.8,53,0.00,,,0.00,WUHU216HW,2013-08-07 09:31:00,
2013-08-07 03:32:00,57.6,40.1,29.84,WSW,248,5.4,5.8,52,0.00,,,0.00,WUHU216HW,2013-08-07 09:32:00,
2013-08-07 03:33:00,57.6,40.6,29.84,WSW,248,5.4,5.8,53,0.00,,,0.00,WUHU216HW,2013-08-07 09:33:00,
2013-08-07 03:34:00,57.4,40.4,29.84,WSW,248,4.7,6.3,53,0.00,,,0.00,WUHU216HW,2013-08-07 09:34:00,
2013-08-07 03:36:00,57.4,40.4,29.84,WSW,248,5.8,6.3,53,0.00,,,0.00,WUHU216HW,2013-08-07 09:36:00,
2013-08-07 03:37:00,57.2,40.8,29.84,WSW,248,5.8,6.3,54,0.00,,,0.00,WUHU216HW,2013-08-07 09:37:00,
2013-08-07 03:38:00,57.2,40.8,29.84,WSW,248,6.3,6.5,54,0.00,,,0.00,WUHU216HW,2013-08-07 09:38:00,
2013-08-07 03:39:00,57.2,40.8,29.84,WSW,248,6.5,6.5,54,0.00,,,0.00,WUHU216HW,2013-08-07 09:39:00,
2013-08-07 03:41:00,57.2,40.8,29.84,West,270,5.8,6.9,54,0.00,,,0.00,WUHU216HW,2013-08-07 09:41:00,
2013-08-07 03:42:00,57.1,40.6,29.84,WSW,248,5.4,6.9,54,0.00,,,0.00,WUHU216HW,2013-08-07 09:42:00,
2013-08-07 03:43:00,57.1,40.6,29.84,WSW,248,6.3,6.9,54,0.00,,,0.00,WUHU216HW,2013-08-07 09:43:00,
2013-08-07 03:44:00,57.1,40.6,29.84,WSW,248,6.7,6.9,54,0.00,,,0.00,WUHU216HW,2013-08-07 09:44:00,
2013-08-07 03:46:00,57.1,40.6,29.84,WSW,248,6.0,7.6,54,0.00,,,0.00,WUHU216HW,2013-08-07 09:46:00,
2013-08-07 03:48:00,57.1,40.6,29.84,WSW,248,6.5,7.6,54,0.00,,,0.00,WUHU216HW,2013-08-07 09:48:00,
2013-08-07 03:49:00,57.1,40.6,29.84,WSW,248,5.1,7.8,54,0.00,,,0.00,WUHU216HW,2013-08-07 09:49:00,
2013-08-07 03:50:00,57.1,40.6,29.84,West,270,5.4,7.8,54,0.00,,,0.00,WUHU216HW,2013-08-07 09:50:00,
2013-08-07 03:51:00,57.1,40.6,29.84,West,270,7.2,7.8,54,0.00,,,0.00,WUHU216HW,2013-08-07 09:51:00,
2013-08-07 03:53:00,57.1,40.6,29.84,West,270,6.9,7.8,54,0.00,,,0.00,WUHU216HW,2013-08-07 09:53:00,
2013-08-07 03:54:00,57.1,40.6,29.84,WSW,248,5.4,7.8,54,0.00,,,0.00,WUHU216HW,2013-08-07 09:54:00,
2013-08-07 03:55:00,57.1,40.6,29.84,WSW,248,6.0,7.8,54,0.00,,,0.00,WUHU216HW,2013-08-07 09:55:00,
2013-08-07 03:57:00,57.1,40.6,29.84,West,270,6.5,7.8,54,0.00,,,0.00,WUHU216HW,2013-08-07 09:57:00,
2013-08-07 03:58:00,57.2,40.8,29.84,WSW,248,6.5,7.8,54,0.00,,,0.00,WUHU216HW,2013-08-07 09:58:00,
2013-08-07 04:00:00,57.2,40.8,29.84,WSW,248,6.3,7.6,54,0.00,,,0.00,WUHU216HW,2013-08-07 10:00:00,
2013-08-07 04:02:00,57.2,40.8,29.84,WSW,248,7.4,7.6,54,0.00,,,0.00,WUHU216HW,2013-08-07 10:02:00,
2013-08-07 04:03:00,57.2,40.8,29.84,WSW,248,6.5,7.6,54,0.00,,,0.00,WUHU216HW,2013-08-07 10:03:00,
2013-08-07 04:04:00,57.2,40.8,29.84,WSW,248,6.9,7.6,54,0.00,,,0.00,WUHU216HW,2013-08-07 10:04:00,
2013-08-07 04:05:00,57.4,41.0,29.84,West,270,7.6,7.8,54,0.00,,,0.00,WUHU216HW,2013-08-07 10:05:00,
2013-08-07 04:07:00,57.6,41.0,29.84,West,270,8.3,9.6,54,0.00,,,0.00,WUHU216HW,2013-08-07 10:07:00,
2013-08-07 04:09:00,57.6,41.0,29.84,WSW,248,5.8,9.6,54,0.00,,,0.00,WUHU216HW,2013-08-07 10:09:00,
2013-08-07 04:10:00,57.6,41.0,29.84,WSW,248,6.0,9.6,54,0.00,,,0.00,WUHU216HW,2013-08-07 10:10:00,
2013-08-07 04:13:00,57.6,41.0,29.84,WSW,248,6.0,9.6,54,0.00,,,0.00,WUHU216HW,2013-08-07 10:13:00,
2013-08-07 04:14:00,57.6,41.0,29.84,WSW,248,6.5,9.6,54,0.00,,,0.00,WUHU216HW,2013-08-07 10:14:00,
2013-08-07 04:16:00,57.6,41.0,29.84,WSW,248,7.8,9.6,54,0.00,,,0.00,WUHU216HW,2013-08-07 10:16:00,
2013-08-07 04:18:00,57.6,41.0,29.84,WSW,248,6.9,8.7,54,0.00,,,0.00,WUHU216HW,2013-08-07 10:18:00,
2013-08-07 04:19:00,57.4,41.0,29.84,WSW,248,6.9,8.7,54,0.00,,,0.00,WUHU216HW,2013-08-07 10:19:00,
2013-08-07 04:21:00,57.4,41.0,29.84,WSW,248,9.2,9.6,54,0.00,,,0.00,WUHU216HW,2013-08-07 10:21:00,
2013-08-07 04:23:00,57.2,40.8,29.84,West,270,8.1,9.6,54,0.00,,,0.00,WUHU216HW,2013-08-07 10:23:00,
2013-08-07 04:24:00,57.4,41.0,29.84,West,270,7.6,9.6,54,0.00,,,0.00,WUHU216HW,2013-08-07 10:24:00,
2013-08-07 04:25:00,57.2,40.8,29.84,WSW,248,8.3,9.6,54,0.00,,,0.00,WUHU216HW,2013-08-07 10:25:00,
2013-08-07 04:26:00,57.4,41.0,29.84,WSW,248,8.9,9.6,54,0.00,,,0.00,WUHU216HW,2013-08-07 10:26:00,
2013-08-07 04:28:00,57.4,41.0,29.84,West,270,9.8,9.8,54,0.00,,,0.00,WUHU216HW,2013-08-07 10:28:00,
2013-08-07 04:29:00,57.4,41.0,29.84,WSW,248,9.2,9.8,54,0.00,,,0.00,WUHU216HW,2013-08-07 10:29:00,
2013-08-07 04:30:00,57.4,41.0,29.84,WSW,248,8.5,9.8,54,0.00,,,0.00,WUHU216HW,2013-08-07 10:30:00,
2013-08-07 04:31:00,57.4,41.0,29.84,WSW,248,8.1,9.8,54,0.00,,,0.00,WUHU216HW,2013-08-07 10:31:00,
2013-08-07 04:32:00,57.4,41.0,29.84,West,270,7.4,9.8,54,0.00,,,0.00,WUHU216HW,2013-08-07 10:32:00,
2013-08-07 04:33:00,57.4,41.0,29.84,WSW,248,6.9,9.8,54,0.00,,,0.00,WUHU216HW,2013-08-07 10:33:00,
2013-08-07 04:34:00,57.4,41.0,29.84,West,270,6.7,9.8,54,0.00,,,0.00,WUHU216HW,2013-08-07 10:34:00,
2013-08-07 04:35:00,57.4,41.0,29.84,West,270,6.7,9.8,54,0.00,,,0.00,WUHU216HW,2013-08-07 10:35:00,
2013-08-07 04:36:00,57.2,40.8,29.84,WSW,248,7.6,9.8,54,0.00,,,0.00,WUHU216HW,2013-08-07 10:36:00,
2013-08-07 04:37:00,57.2,40.8,29.84,WSW,248,8.1,9.8,54,0.00,,,0.00,WUHU216HW,2013-08-07 10:37:00,
2013-08-07 04:38:00,57.2,40.8,29.84,West,270,7.6,9.8,54,0.00,,,0.00,WUHU216HW,2013-08-07 10:38:00,
2013-08-07 04:39:00,57.2,40.8,29.84,WNW,293,7.6,9.6,54,0.00,,,0.00,WUHU216HW,2013-08-07 10:39:00,
2013-08-07 04:41:00,57.2,40.8,29.84,WSW,248,6.5,9.6,54,0.00,,,0.00,WUHU216HW,2013-08-07 10:41:00,
2013-08-07 04:42:00,57.2,40.8,29.84,West,270,5.8,8.1,54,0.00,,,0.00,WUHU216HW,2013-08-07 10:42:00,
2013-08-07 04:43:00,57.2,40.8,29.84,WSW,248,6.3,8.1,54,0.00,,,0.00,WUHU216HW,2013-08-07 10:43:00,
2013-08-07 04:44:00,57.2,40.8,29.84,West,270,7.4,8.1,54,0.00,,,0.00,WUHU216HW,2013-08-07 10:44:00,
2013-08-07 04:46:00,57.2,40.8,29.84,WSW,248,7.6,8.1,54,0.00,,,0.00,WUHU216HW,2013-08-07 10:46:00,
2013-08-07 04:47:00,57.2,40.8,29.84,West,270,5.6,7.8,54,0.00,,,0.00,WUHU216HW,2013-08-07 10:47:00,
2013-08-07 04:49:00,57.1,40.6,29.84,WSW,248,5.4,7.6,54,0.00,,,0.00,WUHU216HW,2013-08-07 10:49:00,
2013-08-07 04:50:00,57.2,40.8,29.84,WSW,248,4.9,7.6,54,0.00,,,0.00,WUHU216HW,2013-08-07 10:50:00,
2013-08-07 04:51:00,57.1,40.6,29.84,WSW,248,4.9,7.6,54,0.00,,,0.00,WUHU216HW,2013-08-07 10:51:00,
2013-08-07 04:52:00,57.1,40.6,29.84,WSW,248,6.0,7.6,54,0.00,,,0.00,WUHU216HW,2013-08-07 10:52:00,
2013-08-07 04:54:00,56.9,40.4,29.84,WSW,248,7.2,7.6,54,0.00,,,0.00,WUHU216HW,2013-08-07 10:54:00,
2013-08-07 04:55:00,56.9,40.4,29.84,West,270,6.0,7.6,54,0.00,,,0.00,WUHU216HW,2013-08-07 10:55:00,
2013-08-07 04:56:00,56.9,40.4,29.84,WSW,248,5.4,7.6,54,0.00,,,0.00,WUHU216HW,2013-08-07 10:56:00,
2013-08-07 04:57:00,56.9,40.4,29.84,WSW,248,4.9,7.4,54,0.00,,,0.00,WUHU216HW,2013-08-07 10:57:00,
2013-08-07 05:00:00,56.9,40.4,29.84,WSW,248,5.6,7.4,54,0.00,,,0.00,WUHU216HW,2013-08-07 11:00:00,
2013-08-07 05:01:00,56.9,40.4,29.84,WSW,248,6.5,7.4,54,0.00,,,0.00,WUHU216HW,2013-08-07 11:01:00,
2013-08-07 05:02:00,56.9,40.4,29.84,WSW,248,7.6,8.1,54,0.00,,,0.00,WUHU216HW,2013-08-07 11:02:00,
2013-08-07 05:05:00,56.7,40.2,29.84,WSW,248,6.3,8.1,54,0.00,,,0.00,WUHU216HW,2013-08-07 11:05:00,
2013-08-07 05:06:00,56.9,40.4,29.84,WSW,248,4.3,8.1,54,0.00,,,0.00,WUHU216HW,2013-08-07 11:06:00,
2013-08-07 05:07:00,56.9,40.4,29.84,WSW,248,4.3,8.1,54,0.00,,,0.00,WUHU216HW,2013-08-07 11:07:00,
2013-08-07 05:08:00,56.7,40.2,29.84,WSW,248,4.7,8.1,54,0.00,,,0.00,WUHU216HW,2013-08-07 11:08:00,
2013-08-07 05:10:00,56.9,40.4,29.84,WSW,248,6.3,8.1,54,0.00,,,0.00,WUHU216HW,2013-08-07 11:10:00,
2013-08-07 05:11:00,56.7,40.2,29.84,West,270,7.4,7.6,54,0.00,,,0.00,WUHU216HW,2013-08-07 11:11:00,
2013-08-07 05:12:00,56.7,40.7,29.84,WSW,248,6.5,7.4,55,0.00,,,0.00,WUHU216HW,2013-08-07 11:12:00,
2013-08-07 05:13:00,56.5,40.1,29.84,WSW,248,4.7,7.4,54,0.00,,,0.00,WUHU216HW,2013-08-07 11:13:00,
2013-08-07 05:15:00,56.5,40.1,29.84,WSW,248,3.1,7.4,54,0.00,,,0.00,WUHU216HW,2013-08-07 11:15:00,
2013-08-07 05:17:00,56.5,40.1,29.84,WSW,248,3.8,7.4,54,0.00,,,0.00,WUHU216HW,2013-08-07 11:17:00,
2013-08-07 05:19:00,56.5,40.5,29.84,WSW,248,6.7,7.4,55,0.00,,,0.00,WUHU216HW,2013-08-07 11:19:00,
2013-08-07 05:21:00,56.7,40.7,29.84,West,270,6.7,7.4,55,0.00,,,0.00,WUHU216HW,2013-08-07 11:21:00,
2013-08-07 05:22:00,56.5,40.5,29.84,WSW,248,6.0,7.4,55,0.00,,,0.00,WUHU216HW,2013-08-07 11:22:00,
2013-08-07 05:23:00,56.5,40.5,29.84,WSW,248,6.3,7.2,55,0.00,,,0.00,WUHU216HW,2013-08-07 11:23:00,
2013-08-07 05:24:00,56.5,40.5,29.84,WSW,248,6.0,7.2,55,0.00,,,0.00,WUHU216HW,2013-08-07 11:24:00,
2013-08-07 05:26:00,56.5,40.5,29.84,WSW,248,4.0,7.6,55,0.00,,,0.00,WUHU216HW,2013-08-07 11:26:00,
2013-08-07 05:27:00,56.5,40.1,29.84,WSW,248,3.6,7.6,54,0.00,,,0.00,WUHU216HW,2013-08-07 11:27:00,
2013-08-07 05:28:00,56.5,40.1,29.84,WSW,248,4.7,7.6,54,0.00,,,0.00,WUHU216HW,2013-08-07 11:28:00,
2013-08-07 05:29:00,56.5,40.1,29.84,WSW,248,4.3,7.6,54,0.00,,,0.00,WUHU216HW,2013-08-07 11:29:00,
2013-08-07 05:32:00,56.5,40.5,29.84,WSW,248,5.1,7.6,55,0.00,,,0.00,WUHU216HW,2013-08-07 11:32:00,
2013-08-07 05:33:00,56.5,40.5,29.84,WSW,248,3.4,7.6,55,0.00,,,0.00,WUHU216HW,2013-08-07 11:33:00,
2013-08-07 05:34:00,56.5,40.5,29.84,SW,225,3.6,7.6,55,0.00,,,0.00,WUHU216HW,2013-08-07 11:34:00,
2013-08-07 05:37:00,56.5,40.1,29.84,WSW,248,4.5,6.9,54,0.00,,,0.00,WUHU216HW,2013-08-07 11:37:00,
2013-08-07 05:38:00,56.5,40.5,29.84,West,270,6.0,6.9,55,0.00,,,0.00,WUHU216HW,2013-08-07 11:38:00,
2013-08-07 05:39:00,56.5,40.5,29.84,West,270,6.7,6.9,55,0.00,,,0.00,WUHU216HW,2013-08-07 11:39:00,
2013-08-07 05:40:00,56.5,40.5,29.84,West,270,6.7,6.9,55,0.00,,,0.00,WUHU216HW,2013-08-07 11:40:00,
2013-08-07 05:42:00,56.5,40.5,29.84,West,270,4.9,6.7,55,0.00,,,0.00,WUHU216HW,2013-08-07 11:42:00,
2013-08-07 05:43:00,56.5,40.5,29.84,WSW,248,4.3,6.7,55,0.00,,,0.00,WUHU216HW,2013-08-07 11:43:00,
2013-08-07 05:45:00,56.5,40.5,29.84,WSW,248,4.3,6.7,55,0.00,,,0.00,WUHU216HW,2013-08-07 11:45:00,
2013-08-07 05:47:00,56.3,39.9,29.84,WSW,248,3.6,6.7,54,0.00,,,0.00,WUHU216HW,2013-08-07 11:47:00,
2013-08-07 05:48:00,56.3,39.9,29.84,WSW,248,2.9,6.7,54,0.00,,,0.00,WUHU216HW,2013-08-07 11:48:00,
2013-08-07 05:50:00,56.3,39.9,29.84,WSW,248,4.0,6.5,54,0.00,,,0.00,WUHU216HW,2013-08-07 11:50:00,
2013-08-07 05:51:00,56.2,40.1,29.84,WSW,248,6.3,6.3,55,0.00,,,0.00,WUHU216HW,2013-08-07 11:51:00,
2013-08-07 05:52:00,56.2,40.1,29.84,WSW,248,6.9,7.4,55,0.00,,,0.00,WUHU216HW,2013-08-07 11:52:00,
2013-08-07 05:53:00,56.2,40.1,29.84,WSW,248,3.6,7.4,55,0.00,,,0.00,WUHU216HW,2013-08-07 11:53:00,
2013-08-07 05:55:00,56.0,40.0,29.84,West,270,2.5,7.4,55,0.00,,,0.00,WUHU216HW,2013-08-07 11:55:00,
2013-08-07 05:56:00,56.2,40.1,29.84,WSW,248,2.9,7.4,55,0.00,,,0.00,WUHU216HW,2013-08-07 11:56:00,
2013-08-07 05:57:00,56.2,40.1,29.84,West,270,4.7,7.4,55,0.00,,,0.00,WUHU216HW,2013-08-07 11:57:00,
2013-08-07 05:58:00,56.2,40.1,29.84,West,270,4.7,7.4,55,0.00,,,0.00,WUHU216HW,2013-08-07 11:58:00,
2013-08-07 06:00:00,56.0,40.0,29.84,WSW,248,3.1,7.4,55,0.00,,,0.00,WUHU216HW,2013-08-07 12:00:00,
2013-08-07 06:01:00,56.0,40.0,29.84,WSW,248,2.5,7.4,55,0.00,,,0.00,WUHU216HW,2013-08-07 12:01:00,
2013-08-07 06:03:00,55.8,39.8,29.84,West,270,3.8,4.7,55,0.00,,,0.00,WUHU216HW,2013-08-07 12:03:00,
2013-08-07 06:04:00,55.8,39.8,29.84,West,270,4.3,4.7,55,0.00,,,0.00,WUHU216HW,2013-08-07 12:04:00,
2013-08-07 06:05:00,55.8,40.2,29.84,West,270,6.9,6.9,56,0.00,,,0.00,WUHU216HW,2013-08-07 12:05:00,
2013-08-07 06:06:00,55.6,39.6,29.84,West,270,7.2,7.2,55,0.00,,,0.00,WUHU216HW,2013-08-07 12:06:00,
2013-08-07 06:08:00,55.4,39.9,29.84,WSW,248,5.1,7.2,56,0.00,,,0.00,WUHU216HW,2013-08-07 12:08:00,
2013-08-07 06:09:00,55.4,39.9,29.84,WSW,248,4.0,7.2,56,0.00,,,0.00,WUHU216HW,2013-08-07 12:09:00,
2013-08-07 06:10:00,55.3,39.7,29.84,WSW,248,2.2,7.2,56,0.00,,,0.00,WUHU216HW,2013-08-07 12:10:00,
2013-08-07 06:11:00,55.3,39.7,29.84,WSW,248,1.1,7.2,56,0.00,,,0.00,WUHU216HW,2013-08-07 12:11:00,
2013-08-07 06:13:00,55.3,39.7,29.84,South,180,0.0,7.2,56,0.00,,,0.00,WUHU216HW,2013-08-07 12:13:00,
2013-08-07 06:14:00,55.3,39.7,29.84,WSW,248,1.6,7.2,56,0.00,,,0.00,WUHU216HW,2013-08-07 12:14:00,
2013-08-07 06:15:00,55.3,39.7,29.84,West,270,2.7,7.2,56,0.00,,,0.00,WUHU216HW,2013-08-07 12:15:00,
2013-08-07 06:16:00,55.4,40.3,29.84,WSW,248,4.3,7.2,57,0.00,,,0.00,WUHU216HW,2013-08-07 12:16:00,
2013-08-07 06:18:00,55.3,40.7,29.84,WSW,248,5.4,6.3,58,0.00,,,0.00,WUHU216HW,2013-08-07 12:18:00,
2013-08-07 06:19:00,55.3,40.7,29.84,WSW,248,4.9,6.3,58,0.00,,,0.00,WUHU216HW,2013-08-07 12:19:00,
2013-08-07 06:20:00,55.3,40.2,29.84,SW,225,3.6,6.3,57,0.00,,,0.00,WUHU216HW,2013-08-07 12:20:00,
2013-08-07 06:21:00,55.1,40.1,29.84,West,270,3.8,6.3,57,0.00,,,0.00,WUHU216HW,2013-08-07 12:21:00,
2013-08-07 06:23:00,55.1,40.1,29.84,West,270,1.8,6.3,57,0.00,,,0.00,WUHU216HW,2013-08-07 12:23:00,
2013-08-07 06:24:00,55.1,40.1,29.84,WSW,248,1.6,6.3,57,0.00,,,0.00,WUHU216HW,2013-08-07 12:24:00,
2013-08-07 06:26:00,55.1,40.1,29.84,West,270,3.8,6.3,57,0.00,,,0.00,WUHU216HW,2013-08-07 12:26:00,
2013-08-07 06:28:00,55.1,40.5,29.84,WSW,248,8.1,8.1,58,0.00,,,0.00,WUHU216HW,2013-08-07 12:28:00,
2013-08-07 06:29:00,55.1,40.5,29.84,WSW,248,6.5,8.1,58,0.00,,,0.00,WUHU216HW,2013-08-07 12:29:00,
2013-08-07 06:31:00,54.9,40.3,29.84,WSW,248,3.8,8.1,58,0.00,,,0.00,WUHU216HW,2013-08-07 12:31:00,
2013-08-07 06:34:00,54.9,40.3,29.84,WSW,248,3.4,8.1,58,0.00,,,0.00,WUHU216HW,2013-08-07 12:34:00,
2013-08-07 06:36:00,54.9,40.3,29.84,WSW,248,5.1,8.1,58,0.00,,,0.00,WUHU216HW,2013-08-07 12:36:00,
2013-08-07 06:39:00,54.7,40.7,29.84,West,270,5.1,6.5,59,0.00,,,0.00,WUHU216HW,2013-08-07 12:39:00,
2013-08-07 06:41:00,54.7,41.1,29.84,WSW,248,4.3,5.6,60,0.00,,,0.00,WUHU216HW,2013-08-07 12:41:00,
2013-08-07 06:44:00,54.9,41.3,29.84,West,270,3.1,5.6,60,0.00,,,0.00,WUHU216HW,2013-08-07 12:44:00,
2013-08-07 06:46:00,54.9,41.7,29.84,West,270,5.6,5.6,61,0.00,,,0.00,WUHU216HW,2013-08-07 12:46:00,
2013-08-07 06:49:00,55.1,41.4,29.84,WSW,248,4.7,5.6,60,0.00,,,0.00,WUHU216HW,2013-08-07 12:49:00,
2013-08-07 06:51:00,55.1,41.0,29.84,WSW,248,3.8,5.6,59,0.00,,,0.00,WUHU216HW,2013-08-07 12:51:00,
2013-08-07 06:52:00,55.1,41.0,29.84,WSW,248,3.1,5.6,59,0.00,,,0.00,WUHU216HW,2013-08-07 12:52:00,
2013-08-07 06:54:00,55.4,41.3,29.84,WSW,248,3.6,5.6,59,0.00,,,0.00,WUHU216HW,2013-08-07 12:54:00,
2013-08-07 06:55:00,55.4,41.3,29.84,WSW,248,3.4,5.6,59,0.00,,,0.00,WUHU216HW,2013-08-07 12:55:00,
2013-08-07 06:57:00,55.6,41.9,29.84,WSW,248,4.5,5.4,60,0.00,,,0.00,WUHU216HW,2013-08-07 12:57:00,
2013-08-07 06:59:00,55.6,41.9,29.84,WSW,248,5.1,6.3,60,0.00,,,0.00,WUHU216HW,2013-08-07 12:59:00,
2013-08-07 07:00:00,55.8,41.7,29.84,WSW,248,4.3,6.3,59,0.00,,,0.00,WUHU216HW,2013-08-07 13:00:00,
2013-08-07 07:02:00,56.0,41.9,29.84,WSW,248,4.0,6.3,59,0.00,,,0.00,WUHU216HW,2013-08-07 13:02:00,
2013-08-07 07:04:00,56.2,41.6,29.84,WSW,248,2.5,6.3,58,0.00,,,0.00,WUHU216HW,2013-08-07 13:04:00,
2013-08-07 07:05:00,56.2,41.6,29.84,WSW,248,2.5,6.3,58,0.00,,,0.00,WUHU216HW,2013-08-07 13:05:00,
2013-08-07 07:07:00,56.5,42.0,29.85,WSW,248,2.7,6.3,58,0.00,,,0.00,WUHU216HW,2013-08-07 13:07:00,
2013-08-07 07:10:00,56.7,42.6,29.85,WSW,248,2.5,5.1,59,0.00,,,0.00,WUHU216HW,2013-08-07 13:10:00,
2013-08-07 07:12:00,56.9,42.3,29.84,WSW,248,1.1,5.1,58,0.00,,,0.00,WUHU216HW,2013-08-07 13:12:00,
2013-08-07 07:13:00,56.9,42.3,29.84,WSW,248,1.3,5.1,58,0.00,,,0.00,WUHU216HW,2013-08-07 13:13:00,
2013-08-07 07:15:00,57.2,42.7,29.84,WSW,248,1.1,5.1,58,0.00,,,0.00,WUHU216HW,2013-08-07 13:15:00,
2013-08-07 07:18:00,57.4,42.8,29.85,WSW,248,1.8,4.9,58,0.00,,,0.00,WUHU216HW,2013-08-07 13:18:00,
2013-08-07 07:20:00,57.6,42.9,29.85,West,270,1.8,2.5,58,0.00,,,0.00,WUHU216HW,2013-08-07 13:20:00,
2013-08-07 07:21:00,57.6,42.9,29.85,West,270,1.8,2.5,58,0.00,,,0.00,WUHU216HW,2013-08-07 13:21:00,
2013-08-07 07:23:00,57.8,43.1,29.85,WSW,248,1.8,2.5,58,0.00,,,0.00,WUHU216HW,2013-08-07 13:23:00,
2013-08-07 07:25:00,58.0,43.3,29.85,WSW,248,2.0,2.5,58,0.00,,,0.00,WUHU216HW,2013-08-07 13:25:00,
2013-08-07 07:26:00,58.0,43.3,29.85,SW,225,1.8,2.5,58,0.00,,,0.00,WUHU216HW,2013-08-07 13:26:00,
2013-08-07 07:28:00,58.1,43.5,29.85,SW,225,1.8,2.5,58,0.00,,,0.00,WUHU216HW,2013-08-07 13:28:00,
2013-08-07 07:29:00,58.1,43.5,29.85,SW,225,1.8,2.5,58,0.00,,,0.00,WUHU216HW,2013-08-07 13:29:00,
2013-08-07 07:30:00,58.3,43.6,29.85,SW,225,2.0,2.0,58,0.00,,,0.00,WUHU216HW,2013-08-07 13:30:00,
2013-08-07 07:31:00,58.3,43.6,29.85,SW,225,2.0,2.0,58,0.00,,,0.00,WUHU216HW,2013-08-07 13:31:00,
2013-08-07 07:33:00,58.7,43.9,29.85,SW,225,0.9,2.2,58,0.00,,,0.00,WUHU216HW,2013-08-07 13:33:00,
2013-08-07 07:34:00,58.7,43.9,29.85,SW,225,0.7,2.2,58,0.00,,,0.00,WUHU216HW,2013-08-07 13:34:00,
2013-08-07 07:36:00,58.9,44.1,29.85,SW,225,0.2,2.2,58,0.00,,,0.00,WUHU216HW,2013-08-07 13:36:00,
2013-08-07 07:39:00,59.0,44.3,29.85,SW,225,0.0,2.2,58,0.00,,,0.00,WUHU216HW,2013-08-07 13:39:00,
2013-08-07 07:41:00,59.2,44.9,29.85,SW,225,1.3,2.2,59,0.00,,,0.00,WUHU216HW,2013-08-07 13:41:00,
2013-08-07 07:44:00,59.4,45.1,29.85,WSW,248,1.3,2.0,59,0.00,,,0.00,WUHU216HW,2013-08-07 13:44:00,
2013-08-07 07:45:00,59.6,45.3,29.85,WSW,248,1.8,2.2,59,0.00,,,0.00,WUHU216HW,2013-08-07 13:45:00,
2013-08-07 07:46:00,59.6,45.7,29.85,WSW,248,2.0,2.2,60,0.00,,,0.00,WUHU216HW,2013-08-07 13:46:00,
2013-08-07 07:49:00,59.6,45.7,29.85,West,270,1.3,2.2,60,0.00,,,0.00,WUHU216HW,2013-08-07 13:49:00,
2013-08-07 07:50:00,59.6,45.7,29.85,West,270,0.9,2.2,60,0.00,,,0.00,WUHU216HW,2013-08-07 13:50:00,
2013-08-07 07:51:00,59.8,45.9,29.85,West,270,0.4,2.2,60,0.00,,,0.00,WUHU216HW,2013-08-07 13:51:00,
2013-08-07 07:52:00,59.8,45.9,29.85,West,270,0.7,2.2,60,0.00,,,0.00,WUHU216HW,2013-08-07 13:52:00,
2013-08-07 07:54:00,59.9,46.5,29.85,WSW,248,1.1,2.2,61,0.00,,,0.00,WUHU216HW,2013-08-07 13:54:00,
2013-08-07 07:55:00,60.1,46.7,29.85,West,270,1.1,2.2,61,0.00,,,0.00,WUHU216HW,2013-08-07 13:55:00,
2013-08-07 07:56:00,60.1,46.7,29.85,WSW,248,1.3,2.0,61,0.00,,,0.00,WUHU216HW,2013-08-07 13:56:00,
2013-08-07 07:57:00,60.1,46.7,29.85,West,270,1.1,1.8,61,0.00,,,0.00,WUHU216HW,2013-08-07 13:57:00,
2013-08-07 07:59:00,60.3,46.9,29.85,West,270,0.0,1.6,61,0.00,,,0.00,WUHU216HW,2013-08-07 13:59:00,
2013-08-07 08:00:00,60.3,46.9,29.85,West,270,0.4,1.6,61,0.00,,,0.00,WUHU216HW,2013-08-07 14:00:00,
2013-08-07 08:02:00,60.5,46.6,29.85,North,0,0.0,1.6,60,0.00,,,0.00,WUHU216HW,2013-08-07 14:02:00,
2013-08-07 08:05:00,60.8,47.0,29.85,North,0,0.0,1.6,60,0.00,,,0.00,WUHU216HW,2013-08-07 14:05:00,
2013-08-07 08:06:00,61.0,47.2,29.85,ENE,68,2.5,2.5,60,0.00,,,0.00,WUHU216HW,2013-08-07 14:06:00,
2013-08-07 08:07:00,61.2,46.8,29.85,ENE,68,1.1,2.5,59,0.00,,,0.00,WUHU216HW,2013-08-07 14:07:00,
2013-08-07 08:08:00,61.4,47.4,29.85,NE,45,1.3,2.5,60,0.00,,,0.00,WUHU216HW,2013-08-07 14:08:00,
2013-08-07 08:10:00,61.6,46.2,29.85,East,90,2.2,2.5,57,0.00,,,0.00,WUHU216HW,2013-08-07 14:10:00,
2013-08-07 08:11:00,61.6,46.2,29.85,ENE,68,1.3,2.7,57,0.00,,,0.00,WUHU216HW,2013-08-07 14:11:00,
2013-08-07 08:12:00,61.7,46.4,29.85,NE,45,1.8,2.7,57,0.00,,,0.00,WUHU216HW,2013-08-07 14:12:00,
2013-08-07 08:13:00,61.7,46.4,29.85,NE,45,1.8,2.7,57,0.00,,,0.00,WUHU216HW,2013-08-07 14:13:00,
2013-08-07 08:15:00,62.1,46.6,29.85,NE,45,2.2,2.9,57,0.00,,,0.00,WUHU216HW,2013-08-07 14:15:00,
2013-08-07 08:16:00,62.1,46.6,29.85,NE,45,1.8,2.9,57,0.00,,,0.00,WUHU216HW,2013-08-07 14:16:00,
2013-08-07 08:17:00,62.3,46.4,29.85,NE,45,2.2,2.9,56,0.00,,,0.00,WUHU216HW,2013-08-07 14:17:00,
2013-08-07 08:18:00,62.3,45.8,29.85,ENE,68,2.5,2.9,55,0.00,,,0.00,WUHU216HW,2013-08-07 14:18:00,
2013-08-07 08:20:00,62.6,46.2,29.85,East,90,1.8,2.9,55,0.00,,,0.00,WUHU216HW,2013-08-07 14:20:00,
2013-08-07 08:21:00,62.6,46.2,29.85,ESE,113,2.9,2.9,55,0.00,,,0.00,WUHU216HW,2013-08-07 14:21:00,
2013-08-07 08:22:00,62.6,46.6,29.85,East,90,2.7,2.9,56,0.00,,,0.00,WUHU216HW,2013-08-07 14:22:00,
2013-08-07 08:23:00,62.8,46.8,29.85,East,90,2.7,2.9,56,0.00,,,0.00,WUHU216HW,2013-08-07 14:23:00,
2013-08-07 08:26:00,63.0,47.0,29.85,ENE,68,2.2,3.4,56,0.00,,,0.00,WUHU216HW,2013-08-07 14:26:00,
2013-08-07 08:27:00,63.0,46.5,29.85,East,90,2.5,3.4,55,0.00,,,0.00,WUHU216HW,2013-08-07 14:27:00,
2013-08-07 08:28:00,63.0,46.5,29.85,East,90,1.8,3.4,55,0.00,,,0.00,WUHU216HW,2013-08-07 14:28:00,
2013-08-07 08:31:00,63.4,46.8,29.85,SE,135,1.3,4.0,55,0.00,,,0.00,WUHU216HW,2013-08-07 14:31:00,
2013-08-07 08:32:00,63.4,46.8,29.85,SE,135,1.3,4.0,55,0.00,,,0.00,WUHU216HW,2013-08-07 14:32:00,
2013-08-07 08:33:00,63.4,46.8,29.85,SE,135,4.3,4.3,55,0.00,,,0.00,WUHU216HW,2013-08-07 14:33:00,
2013-08-07 08:36:00,63.5,47.0,29.85,SSE,158,3.6,4.7,55,0.00,,,0.00,WUHU216HW,2013-08-07 14:36:00,
2013-08-07 08:37:00,63.5,47.0,29.85,SSE,158,2.5,4.7,55,0.00,,,0.00,WUHU216HW,2013-08-07 14:37:00,
2013-08-07 08:38:00,63.5,46.5,29.85,SE,135,1.6,4.7,54,0.00,,,0.00,WUHU216HW,2013-08-07 14:38:00,
2013-08-07 08:39:00,63.5,47.0,29.85,SE,135,3.8,4.7,55,0.00,,,0.00,WUHU216HW,2013-08-07 14:39:00,
2013-08-07 08:41:00,63.7,47.2,29.85,SE,135,3.6,4.7,55,0.00,,,0.00,WUHU216HW,2013-08-07 14:41:00,
2013-08-07 08:42:00,63.7,47.2,29.85,SSE,158,4.7,4.7,55,0.00,,,0.00,WUHU216HW,2013-08-07 14:42:00,
2013-08-07 08:43:00,63.7,47.2,29.85,SSE,158,4.7,4.7,55,0.00,,,0.00,WUHU216HW,2013-08-07 14:43:00,
2013-08-07 08:44:00,63.7,47.2,29.85,SSE,158,3.6,5.1,55,0.00,,,0.00,WUHU216HW,2013-08-07 14:44:00,
2013-08-07 08:47:00,63.9,47.4,29.85,SE,135,4.0,6.0,55,0.00,,,0.00,WUHU216HW,2013-08-07 14:47:00,
2013-08-07 08:48:00,64.1,47.4,29.85,SE,135,5.4,6.0,55,0.00,,,0.00,WUHU216HW,2013-08-07 14:48:00,
2013-08-07 08:50:00,64.1,47.4,29.85,SSE,158,6.0,6.3,55,0.00,,,0.00,WUHU216HW,2013-08-07 14:50:00,
2013-08-07 08:52:00,64.1,47.4,29.85,SE,135,5.4,6.3,55,0.00,,,0.00,WUHU216HW,2013-08-07 14:52:00,
2013-08-07 08:53:00,64.3,47.6,29.85,SE,135,6.9,6.9,55,0.00,,,0.00,WUHU216HW,2013-08-07 14:53:00,
2013-08-07 08:54:00,64.1,47.4,29.85,SE,135,4.3,6.9,55,0.00,,,0.00,WUHU216HW,2013-08-07 14:54:00,
2013-08-07 08:55:00,64.3,47.6,29.85,SE,135,4.9,6.9,55,0.00,,,0.00,WUHU216HW,2013-08-07 14:55:00,
2013-08-07 08:57:00,64.3,47.6,29.85,SE,135,4.5,6.9,55,0.00,,,0.00,WUHU216HW,2013-08-07 14:57:00,
2013-08-07 08:58:00,64.3,47.6,29.85,SE,135,4.0,6.9,55,0.00,,,0.00,WUHU216HW,2013-08-07 14:58:00,
2013-08-07 08:59:00,64.3,47.6,29.85,SE,135,6.9,6.9,55,0.00,,,0.00,WUHU216HW,2013-08-07 14:59:00,
2013-08-07 09:00:00,64.3,47.2,29.85,SE,135,5.6,6.9,54,0.00,,,0.00,WUHU216HW,2013-08-07 15:00:00,
2013-08-07 09:03:00,64.3,47.2,29.85,ESE,113,4.9,6.9,54,0.00,,,0.00,WUHU216HW,2013-08-07 15:03:00,
2013-08-07 09:04:00,64.4,47.4,29.85,SE,135,4.0,6.9,54,0.00,,,0.00,WUHU216HW,2013-08-07 15:04:00,
2013-08-07 09:05:00,64.4,47.4,29.85,SE,135,6.3,6.9,54,0.00,,,0.00,WUHU216HW,2013-08-07 15:05:00,
2013-08-07 09:08:00,64.4,47.4,29.85,SE,135,4.0,6.9,54,0.00,,,0.00,WUHU216HW,2013-08-07 15:08:00,
2013-08-07 09:09:00,64.6,47.5,29.85,SSE,158,3.4,6.9,54,0.00,,,0.00,WUHU216HW,2013-08-07 15:09:00,
2013-08-07 09:10:00,64.6,47.0,29.85,SSE,158,5.1,6.9,53,0.00,,,0.00,WUHU216HW,2013-08-07 15:10:00,
2013-08-07 09:13:00,64.8,47.7,29.85,SSE,158,5.6,6.9,54,0.00,,,0.00,WUHU216HW,2013-08-07 15:13:00,
2013-08-07 09:14:00,64.8,47.7,29.85,SE,135,2.9,6.9,54,0.00,,,0.00,WUHU216HW,2013-08-07 15:14:00,
2013-08-07 09:15:00,65.0,47.9,29.85,SSE,158,4.5,6.7,54,0.00,,,0.00,WUHU216HW,2013-08-07 15:15:00,
2013-08-07 09:18:00,65.2,47.5,29.85,SE,135,4.7,6.7,53,0.00,,,0.00,WUHU216HW,2013-08-07 15:18:00,
2013-08-07 09:19:00,65.2,47.5,29.85,ESE,113,3.6,6.7,53,0.00,,,0.00,WUHU216HW,2013-08-07 15:19:00,
2013-08-07 09:20:00,65.3,47.7,29.85,SE,135,6.3,6.7,53,0.00,,,0.00,WUHU216HW,2013-08-07 15:20:00,
2013-08-07 09:23:00,65.5,47.9,29.86,SSE,158,4.5,6.7,53,0.00,,,0.00,WUHU216HW,2013-08-07 15:23:00,
2013-08-07 09:24:00,65.5,47.9,29.86,SSE,158,4.5,6.7,53,0.00,,,0.00,WUHU216HW,2013-08-07 15:24:00,
2013-08-07 09:25:00,65.7,47.6,29.86,SSE,158,5.6,6.7,52,0.00,,,0.00,WUHU216HW,2013-08-07 15:25:00,
2013-08-07 09:26:00,65.9,47.8,29.86,East,90,2.7,6.7,52,0.00,,,0.00,WUHU216HW,2013-08-07 15:26:00,
2013-08-07 09:28:00,65.9,46.8,29.85,SSE,158,6.0,6.9,50,0.00,,,0.00,WUHU216HW,2013-08-07 15:28:00,
2013-08-07 09:29:00,65.9,46.8,29.85,SE,135,4.7,6.9,50,0.00,,,0.00,WUHU216HW,2013-08-07 15:29:00,
2013-08-07 09:30:00,66.1,47.0,29.85,South,180,6.5,6.9,50,0.00,,,0.00,WUHU216HW,2013-08-07 15:30:00,
2013-08-07 09:31:00,66.1,47.0,29.85,SSE,158,4.9,6.9,50,0.00,,,0.00,WUHU216HW,2013-08-07 15:31:00,
2013-08-07 09:33:00,66.4,46.7,29.85,SE,135,7.2,7.2,49,0.00,,,0.00,WUHU216HW,2013-08-07 15:33:00,
2013-08-07 09:34:00,66.4,46.2,29.85,SE,135,5.4,7.2,48,0.00,,,0.00,WUHU216HW,2013-08-07 15:34:00,
2013-08-07 09:35:00,66.4,46.2,29.85,SE,135,5.6,7.2,48,0.00,,,0.00,WUHU216HW,2013-08-07 15:35:00,
2013-08-07 09:36:00,66.6,45.7,29.85,SSE,158,4.5,7.2,47,0.00,,,0.00,WUHU216HW,2013-08-07 15:36:00,
2013-08-07 09:38:00,66.8,45.9,29.85,SSE,158,5.4,7.2,47,0.00,,,0.00,WUHU216HW,2013-08-07 15:38:00,
2013-08-07 09:39:00,67.0,46.0,29.85,SE,135,5.1,7.2,47,0.00,,,0.00,WUHU216HW,2013-08-07 15:39:00,
2013-08-07 09:40:00,67.0,46.0,29.85,SSE,158,5.6,7.2,47,0.00,,,0.00,WUHU216HW,2013-08-07 15:40:00,
2013-08-07 09:41:00,67.0,46.0,29.85,SE,135,3.4,7.2,47,0.00,,,0.00,WUHU216HW,2013-08-07 15:41:00,
2013-08-07 09:43:00,67.3,45.7,29.85,SSE,158,4.3,7.2,46,0.00,,,0.00,WUHU216HW,2013-08-07 15:43:00,
2013-08-07 09:44:00,67.3,45.2,29.85,SE,135,7.2,7.2,45,0.00,,,0.00,WUHU216HW,2013-08-07 15:44:00,
2013-08-07 09:45:00,67.5,45.4,29.85,SE,135,6.9,7.2,45,0.00,,,0.00,WUHU216HW,2013-08-07 15:45:00,
2013-08-07 09:46:00,67.5,45.4,29.85,ESE,113,4.9,7.2,45,0.00,,,0.00,WUHU216HW,2013-08-07 15:46:00,
2013-08-07 09:49:00,67.9,45.6,29.85,ESE,113,4.9,7.2,45,0.00,,,0.00,WUHU216HW,2013-08-07 15:49:00,
2013-08-07 09:51:00,68.0,45.8,29.85,SE,135,6.3,7.2,45,0.00,,,0.00,WUHU216HW,2013-08-07 15:51:00,
2013-08-07 09:54:00,68.4,45.5,29.85,ESE,113,3.1,7.2,44,0.00,,,0.00,WUHU216HW,2013-08-07 15:54:00,
2013-08-07 09:55:00,68.6,45.7,29.85,SE,135,5.4,7.2,44,0.00,,,0.00,WUHU216HW,2013-08-07 15:55:00,
2013-08-07 09:56:00,68.8,45.9,29.85,ESE,113,3.4,6.7,44,0.00,,,0.00,WUHU216HW,2013-08-07 15:56:00,
2013-08-07 09:59:00,68.8,46.4,29.85,ESE,113,4.0,7.2,45,0.00,,,0.00,WUHU216HW,2013-08-07 15:59:00,
2013-08-07 10:01:00,68.9,46.6,29.85,SSE,158,6.3,7.2,45,0.00,,,0.00,WUHU216HW,2013-08-07 16:01:00,
2013-08-07 10:04:00,69.1,46.8,29.85,ESE,113,6.3,7.2,45,0.00,,,0.00,WUHU216HW,2013-08-07 16:04:00,
2013-08-07 10:06:00,69.5,46.5,29.85,SE,135,7.4,7.4,44,0.00,,,0.00,WUHU216HW,2013-08-07 16:06:00,
2013-08-07 10:09:00,69.5,47.1,29.85,SSE,158,3.4,7.4,45,0.00,,,0.00,WUHU216HW,2013-08-07 16:09:00,
2013-08-07 10:11:00,69.8,46.8,29.85,SE,135,5.4,8.3,44,0.00,,,0.00,WUHU216HW,2013-08-07 16:11:00,
2013-08-07 10:12:00,69.8,46.8,29.85,SSE,158,4.3,8.3,44,0.00,,,0.00,WUHU216HW,2013-08-07 16:12:00,
2013-08-07 10:14:00,70.0,47.0,29.85,ESE,113,6.0,8.3,44,0.00,,,0.00,WUHU216HW,2013-08-07 16:14:00,
2013-08-07 10:15:00,70.0,46.5,29.85,ESE,113,7.4,8.3,43,0.00,,,0.00,WUHU216HW,2013-08-07 16:15:00,
2013-08-07 10:17:00,70.2,47.2,29.85,SE,135,5.4,8.3,44,0.00,,,0.00,WUHU216HW,2013-08-07 16:17:00,
2013-08-07 10:19:00,70.4,47.4,29.85,SE,135,4.9,8.3,44,0.00,,,0.00,WUHU216HW,2013-08-07 16:19:00,
2013-08-07 10:20:00,70.4,47.4,29.85,SE,135,4.3,7.4,44,0.00,,,0.00,WUHU216HW,2013-08-07 16:20:00,
2013-08-07 10:22:00,70.6,47.5,29.85,ESE,113,4.5,7.4,44,0.00,,,0.00,WUHU216HW,2013-08-07 16:22:00,
2013-08-07 10:24:00,70.7,47.6,29.85,ESE,113,4.3,7.4,44,0.00,,,0.00,WUHU216HW,2013-08-07 16:24:00,
2013-08-07 10:25:00,70.9,47.8,29.85,SE,135,4.7,7.4,44,0.00,,,0.00,WUHU216HW,2013-08-07 16:25:00,
2013-08-07 10:26:00,70.9,47.8,29.85,South,180,2.9,7.2,44,0.00,,,0.00,WUHU216HW,2013-08-07 16:26:00,
2013-08-07 10:27:00,71.3,48.2,29.85,SE,135,3.8,7.2,44,0.00,,,0.00,WUHU216HW,2013-08-07 16:27:00,
2013-08-07 10:29:00,71.5,47.1,29.85,SE,135,6.3,7.2,42,0.00,,,0.00,WUHU216HW,2013-08-07 16:29:00,
2013-08-07 10:30:00,71.5,47.1,29.85,SSE,158,5.4,7.2,42,0.00,,,0.00,WUHU216HW,2013-08-07 16:30:00,
2013-08-07 10:31:00,71.5,47.7,29.85,ESE,113,1.8,7.2,43,0.00,,,0.00,WUHU216HW,2013-08-07 16:31:00,
2013-08-07 10:32:00,71.6,47.3,29.85,ESE,113,3.6,7.2,42,0.00,,,0.00,WUHU216HW,2013-08-07 16:32:00,
2013-08-07 10:35:00,71.6,46.7,29.85,ESE,113,4.5,6.3,41,0.00,,,0.00,WUHU216HW,2013-08-07 16:35:00,
2013-08-07 10:37:00,71.6,47.3,29.85,East,90,6.3,7.6,42,0.00,,,0.00,WUHU216HW,2013-08-07 16:37:00,
2013-08-07 10:40:00,72.0,47.0,29.85,East,90,4.0,7.6,41,0.00,,,0.00,WUHU216HW,2013-08-07 16:40:00,
2013-08-07 10:42:00,72.0,47.0,29.85,ESE,113,2.9,7.6,41,0.00,,,0.00,WUHU216HW,2013-08-07 16:42:00,
2013-08-07 10:43:00,72.0,47.0,29.85,East,90,3.6,7.6,41,0.00,,,0.00,WUHU216HW,2013-08-07 16:43:00,
2013-08-07 10:45:00,72.4,47.4,29.85,SE,135,1.1,7.6,41,0.00,,,0.00,WUHU216HW,2013-08-07 16:45:00,
2013-08-07 10:47:00,72.5,47.5,29.85,SE,135,4.5,5.1,41,0.00,,,0.00,WUHU216HW,2013-08-07 16:47:00,
2013-08-07 10:48:00,72.5,47.5,29.85,SE,135,6.3,6.3,41,0.00,,,0.00,WUHU216HW,2013-08-07 16:48:00,
2013-08-07 10:50:00,73.1,48.0,29.85,SSE,158,4.9,6.3,41,0.00,,,0.00,WUHU216HW,2013-08-07 16:50:00,
2013-08-07 10:52:00,73.4,48.3,29.85,ESE,113,4.9,6.3,41,0.00,,,0.00,WUHU216HW,2013-08-07 16:52:00,
2013-08-07 10:53:00,73.4,47.7,29.85,ESE,113,1.8,6.3,40,0.00,,,0.00,WUHU216HW,2013-08-07 16:53:00,
2013-08-07 10:54:00,73.6,47.9,29.85,SE,135,4.7,6.3,40,0.00,,,0.00,WUHU216HW,2013-08-07 16:54:00,
2013-08-07 10:55:00,73.6,47.9,29.85,East,90,5.8,6.3,40,0.00,,,0.00,WUHU216HW,2013-08-07 16:55:00,
2013-08-07 10:56:00,73.8,48.1,29.85,East,90,5.4,6.3,40,0.00,,,0.00,WUHU216HW,2013-08-07 16:56:00,
2013-08-07 10:58:00,73.8,47.3,29.85,ENE,68,3.6,6.3,39,0.00,,,0.00,WUHU216HW,2013-08-07 16:58:00,
2013-08-07 10:59:00,73.8,46.5,29.85,ENE,68,2.0,5.8,38,0.00,,,0.00,WUHU216HW,2013-08-07 16:59:00,
2013-08-07 11:00:00,73.6,47.1,29.85,East,90,4.7,6.3,39,0.00,,,0.00,WUHU216HW,2013-08-07 17:00:00,
2013-08-07 11:01:00,73.6,47.1,29.85,East,90,2.7,6.3,39,0.00,,,0.00,WUHU216HW,2013-08-07 17:01:00,
2013-08-07 11:03:00,73.8,48.1,29.85,SE,135,4.5,6.3,40,0.00,,,0.00,WUHU216HW,2013-08-07 17:03:00,
2013-08-07 11:05:00,74.2,48.3,29.85,South,180,3.6,6.3,40,0.00,,,0.00,WUHU216HW,2013-08-07 17:05:00,
2013-08-07 11:06:00,74.3,48.5,29.85,South,180,3.6,6.3,40,0.00,,,0.00,WUHU216HW,2013-08-07 17:06:00,
2013-08-07 11:08:00,74.5,47.9,29.85,ESE,113,1.8,6.3,39,0.00,,,0.00,WUHU216HW,2013-08-07 17:08:00,
2013-08-07 11:09:00,74.7,48.9,29.85,SE,135,2.5,6.3,40,0.00,,,0.00,WUHU216HW,2013-08-07 17:09:00,
2013-08-07 11:10:00,75.1,48.4,29.85,ESE,113,4.7,5.1,39,0.00,,,0.00,WUHU216HW,2013-08-07 17:10:00,
2013-08-07 11:12:00,75.2,48.6,29.85,ESE,113,3.8,4.9,39,0.00,,,0.00,WUHU216HW,2013-08-07 17:12:00,
2013-08-07 11:13:00,75.6,45.9,29.85,ENE,68,2.0,4.9,35,0.00,,,0.00,WUHU216HW,2013-08-07 17:13:00,
2013-08-07 11:14:00,75.4,44.9,29.85,NE,45,1.6,4.9,34,0.00,,,0.00,WUHU216HW,2013-08-07 17:14:00,
2013-08-07 11:15:00,75.2,47.1,29.85,North,0,0.4,4.9,37,0.00,,,0.00,WUHU216HW,2013-08-07 17:15:00,
2013-08-07 11:16:00,75.2,47.1,29.85,North,0,0.0,4.9,37,0.00,,,0.00,WUHU216HW,2013-08-07 17:16:00,
2013-08-07 11:17:00,75.2,47.1,29.85,ESE,113,3.1,4.7,37,0.00,,,0.00,WUHU216HW,2013-08-07 17:17:00,
2013-08-07 11:19:00,75.2,47.8,29.85,SE,135,3.6,6.3,38,0.00,,,0.00,WUHU216HW,2013-08-07 17:19:00,
2013-08-07 11:20:00,75.6,47.3,29.85,SE,135,3.4,6.3,37,0.00,,,0.00,WUHU216HW,2013-08-07 17:20:00,
2013-08-07 11:21:00,75.4,48.0,29.85,SE,135,4.7,6.3,38,0.00,,,0.00,WUHU216HW,2013-08-07 17:21:00,
2013-08-07 11:22:00,75.6,48.2,29.85,SE,135,2.7,6.3,38,0.00,,,0.00,WUHU216HW,2013-08-07 17:22:00,
2013-08-07 11:24:00,75.8,47.5,29.85,WSW,248,1.1,6.3,37,0.00,,,0.00,WUHU216HW,2013-08-07 17:24:00,
2013-08-07 11:26:00,76.3,48.8,29.85,SW,225,2.7,6.3,38,0.00,,,0.00,WUHU216HW,2013-08-07 17:26:00,
2013-08-07 11:27:00,76.5,48.2,29.85,SE,135,1.8,6.3,37,0.00,,,0.00,WUHU216HW,2013-08-07 17:27:00,
2013-08-07 11:29:00,76.5,45.2,29.85,ENE,68,4.0,5.1,33,0.00,,,0.00,WUHU216HW,2013-08-07 17:29:00,
2013-08-07 11:30:00,76.3,45.0,29.85,ENE,68,1.6,5.1,33,0.00,,,0.00,WUHU216HW,2013-08-07 17:30:00,
2013-08-07 11:31:00,76.1,45.6,29.85,ENE,68,4.7,5.1,34,0.00,,,0.00,WUHU216HW,2013-08-07 17:31:00,
2013-08-07 11:33:00,76.0,44.6,29.84,NE,45,1.3,7.2,33,0.00,,,0.00,WUHU216HW,2013-08-07 17:33:00,
2013-08-07 11:34:00,75.6,45.9,29.84,ESE,113,7.4,7.4,35,0.00,,,0.00,WUHU216HW,2013-08-07 17:34:00,
2013-08-07 11:35:00,75.6,45.9,29.84,SE,135,5.4,7.4,35,0.00,,,0.00,WUHU216HW,2013-08-07 17:35:00,
2013-08-07 11:36:00,75.8,46.0,29.84,SE,135,4.5,7.4,35,0.00,,,0.00,WUHU216HW,2013-08-07 17:36:00,
2013-08-07 11:38:00,76.1,47.9,29.84,South,180,3.4,7.4,37,0.00,,,0.00,WUHU216HW,2013-08-07 17:38:00,
2013-08-07 11:40:00,76.7,47.6,29.85,SE,135,0.4,7.4,36,0.00,,,0.00,WUHU216HW,2013-08-07 17:40:00,
2013-08-07 11:41:00,76.9,47.8,29.84,SE,135,0.7,7.4,36,0.00,,,0.00,WUHU216HW,2013-08-07 17:41:00,
2013-08-07 11:44:00,77.2,45.8,29.84,NE,45,2.9,7.4,33,0.00,,,0.00,WUHU216HW,2013-08-07 17:44:00,
2013-08-07 11:45:00,77.0,46.5,29.84,SE,135,2.9,4.7,34,0.00,,,0.00,WUHU216HW,2013-08-07 17:45:00,
2013-08-07 11:46:00,77.0,46.5,29.84,SE,135,4.7,4.7,34,0.00,,,0.00,WUHU216HW,2013-08-07 17:46:00,
2013-08-07 11:49:00,77.6,46.9,29.84,SSE,158,0.9,4.9,34,0.00,,,0.00,WUHU216HW,2013-08-07 17:49:00,
2013-08-07 11:50:00,77.9,48.0,29.84,ESE,113,3.1,4.9,35,0.00,,,0.00,WUHU216HW,2013-08-07 17:50:00,
2013-08-07 11:51:00,77.9,48.0,29.84,ESE,113,3.1,4.9,35,0.00,,,0.00,WUHU216HW,2013-08-07 17:51:00,
2013-08-07 11:52:00,78.1,47.4,29.84,SE,135,2.7,4.9,34,0.00,,,0.00,WUHU216HW,2013-08-07 17:52:00,
2013-08-07 11:54:00,78.8,47.9,29.84,SE,135,2.0,4.9,34,0.00,,,0.00,WUHU216HW,2013-08-07 17:54:00,
2013-08-07 11:56:00,79.2,48.2,29.84,SE,135,3.1,4.9,34,0.00,,,0.00,WUHU216HW,2013-08-07 17:56:00,
2013-08-07 11:57:00,79.6,47.8,29.84,South,180,0.7,4.9,33,0.00,,,0.00,WUHU216HW,2013-08-07 17:57:00,
2013-08-07 11:59:00,79.9,48.9,29.84,ESE,113,1.6,4.5,34,0.00,,,0.00,WUHU216HW,2013-08-07 17:59:00,
2013-08-07 12:01:00,80.3,47.7,29.84,ESE,113,5.6,6.3,32,0.00,,,0.00,WUHU216HW,2013-08-07 18:01:00,
2013-08-07 12:02:00,80.3,47.7,29.84,ESE,113,4.9,6.3,32,0.00,,,0.00,WUHU216HW,2013-08-07 18:02:00,
2013-08-07 12:04:00,80.5,47.8,29.84,SE,135,5.4,6.3,32,0.00,,,0.00,WUHU216HW,2013-08-07 18:04:00,
2013-08-07 12:06:00,80.6,48.8,29.84,SE,135,3.1,6.3,33,0.00,,,0.00,WUHU216HW,2013-08-07 18:06:00,
2013-08-07 12:07:00,81.0,48.2,29.84,ESE,113,3.8,6.3,32,0.00,,,0.00,WUHU216HW,2013-08-07 18:07:00,
2013-08-07 12:09:00,81.0,44.6,29.84,ENE,68,5.4,6.3,28,0.00,,,0.00,WUHU216HW,2013-08-07 18:09:00,
2013-08-07 12:11:00,80.5,45.3,29.84,ENE,68,2.7,6.3,29,0.00,,,0.00,WUHU216HW,2013-08-07 18:11:00,
2013-08-07 12:12:00,79.9,45.8,29.84,ENE,68,5.4,6.3,30,0.00,,,0.00,WUHU216HW,2013-08-07 18:12:00,
2013-08-07 12:15:00,79.2,45.2,29.84,NNE,23,1.8,6.5,30,0.00,,,0.00,WUHU216HW,2013-08-07 18:15:00,
2013-08-07 12:16:00,79.0,45.7,29.84,ENE,68,4.0,6.5,31,0.00,,,0.00,WUHU216HW,2013-08-07 18:16:00,
2013-08-07 12:17:00,78.8,44.8,29.84,ENE,68,1.8,6.5,30,0.00,,,0.00,WUHU216HW,2013-08-07 18:17:00,
2013-08-07 12:18:00,78.8,45.6,29.84,East,90,3.1,6.5,31,0.00,,,0.00,WUHU216HW,2013-08-07 18:18:00,
2013-08-07 12:20:00,78.7,46.3,29.84,ESE,113,2.7,6.5,32,0.00,,,0.00,WUHU216HW,2013-08-07 18:20:00,
2013-08-07 12:22:00,78.8,45.6,29.84,ENE,68,3.4,6.5,31,0.00,,,0.00,WUHU216HW,2013-08-07 18:22:00,
2013-08-07 12:23:00,78.8,44.8,29.84,NE,45,7.8,7.8,30,0.00,,,0.00,WUHU216HW,2013-08-07 18:23:00,
2013-08-07 12:25:00,78.5,45.3,29.84,ENE,68,6.3,7.8,31,0.00,,,0.00,WUHU216HW,2013-08-07 18:25:00,
2013-08-07 12:27:00,78.3,45.2,29.84,NE,45,6.0,8.3,31,0.00,,,0.00,WUHU216HW,2013-08-07 18:27:00,
2013-08-07 12:28:00,78.5,46.1,29.84,ENE,68,6.9,8.3,32,0.00,,,0.00,WUHU216HW,2013-08-07 18:28:00,
2013-08-07 12:30:00,78.5,46.1,29.84,South,180,1.8,8.3,32,0.00,,,0.00,WUHU216HW,2013-08-07 18:30:00,
2013-08-07 12:32:00,79.0,47.4,29.84,South,180,0.4,8.3,33,0.00,,,0.00,WUHU216HW,2013-08-07 18:32:00,
2013-08-07 12:33:00,79.4,46.9,29.84,NE,45,1.8,8.3,32,0.00,,,0.00,WUHU216HW,2013-08-07 18:33:00,
2013-08-07 12:35:00,79.7,46.5,29.84,North,0,3.6,8.3,31,0.00,,,0.00,WUHU216HW,2013-08-07 18:35:00,
2013-08-07 12:37:00,79.7,45.6,29.83,NE,45,5.4,7.6,30,0.00,,,0.00,WUHU216HW,2013-08-07 18:37:00,
2013-08-07 12:38:00,79.7,45.6,29.84,ESE,113,4.0,7.2,30,0.00,,,0.00,WUHU216HW,2013-08-07 18:38:00,
2013-08-07 12:40:00,80.1,46.7,29.84,ESE,113,1.3,6.3,31,0.00,,,0.00,WUHU216HW,2013-08-07 18:40:00,
2013-08-07 12:42:00,80.3,46.9,29.83,NNE,23,4.0,6.3,31,0.00,,,0.00,WUHU216HW,2013-08-07 18:42:00,
2013-08-07 12:43:00,80.3,46.9,29.83,NE,45,8.1,8.1,31,0.00,,,0.00,WUHU216HW,2013-08-07 18:43:00,
2013-08-07 12:44:00,80.1,44.9,29.83,NE,45,5.8,8.1,29,0.00,,,0.00,WUHU216HW,2013-08-07 18:44:00,
2013-08-07 12:46:00,79.9,46.5,29.83,ESE,113,8.3,9.8,31,0.00,,,0.00,WUHU216HW,2013-08-07 18:46:00,
2013-08-07 12:47:00,79.7,45.6,29.83,ENE,68,6.0,9.8,30,0.00,,,0.00,WUHU216HW,2013-08-07 18:47:00,
2013-08-07 12:48:00,79.7,45.6,29.83,NE,45,9.6,9.8,30,0.00,,,0.00,WUHU216HW,2013-08-07 18:48:00,
2013-08-07 12:49:00,79.6,46.3,29.83,ENE,68,8.9,9.8,31,0.00,,,0.00,WUHU216HW,2013-08-07 18:49:00,
2013-08-07 12:51:00,79.2,45.2,29.83,North,0,7.2,9.8,30,0.00,,,0.00,WUHU216HW,2013-08-07 18:51:00,
2013-08-07 12:52:00,79.0,45.7,29.83,East,90,3.4,9.8,31,0.00,,,0.00,WUHU216HW,2013-08-07 18:52:00,
2013-08-07 12:53:00,79.0,46.5,29.83,ESE,113,2.5,9.8,32,0.00,,,0.00,WUHU216HW,2013-08-07 18:53:00,
2013-08-07 12:54:00,79.2,45.9,29.83,NNE,23,4.3,9.8,31,0.00,,,0.00,WUHU216HW,2013-08-07 18:54:00,
2013-08-07 12:56:00,79.2,45.9,29.83,NNE,23,9.6,10.5,31,0.00,,,0.00,WUHU216HW,2013-08-07 18:56:00,
2013-08-07 12:57:00,79.2,45.2,29.83,NNE,23,4.7,10.5,30,0.00,,,0.00,WUHU216HW,2013-08-07 18:57:00,
2013-08-07 12:59:00,79.2,43.0,29.83,NE,45,7.4,11.2,28,0.00,,,0.00,WUHU216HW,2013-08-07 18:59:00,
2013-08-07 13:00:00,79.2,43.0,29.83,North,0,7.6,11.2,28,0.00,,,0.00,WUHU216HW,2013-08-07 19:00:00,
2013-08-07 13:01:00,79.0,41.9,29.83,WNW,293,3.4,11.2,27,0.00,,,0.00,WUHU216HW,2013-08-07 19:01:00,
2013-08-07 13:03:00,79.0,43.9,29.82,NNE,23,4.9,11.2,29,0.00,,,0.00,WUHU216HW,2013-08-07 19:03:00,
2013-08-07 13:04:00,79.2,43.0,29.83,NNW,338,6.7,11.2,28,0.00,,,0.00,WUHU216HW,2013-08-07 19:04:00,
2013-08-07 13:05:00,79.4,43.2,29.83,North,0,4.5,11.2,28,0.00,,,0.00,WUHU216HW,2013-08-07 19:05:00,
2013-08-07 13:06:00,79.4,43.2,29.83,NNE,23,5.4,11.2,28,0.00,,,0.00,WUHU216HW,2013-08-07 19:06:00,
2013-08-07 13:08:00,79.6,43.4,29.82,NNE,23,10.3,11.2,28,0.00,,,0.00,WUHU216HW,2013-08-07 19:08:00,
2013-08-07 13:10:00,79.7,41.5,29.83,NNE,23,9.4,10.3,26,0.00,,,0.00,WUHU216HW,2013-08-07 19:10:00,
2013-08-07 13:11:00,79.6,42.3,29.83,NNE,23,5.6,10.3,27,0.00,,,0.00,WUHU216HW,2013-08-07 19:11:00,
2013-08-07 13:13:00,79.6,43.4,29.82,ENE,68,8.7,10.3,28,0.00,,,0.00,WUHU216HW,2013-08-07 19:13:00,
2013-08-07 13:15:00,79.6,42.3,29.82,ENE,68,8.5,10.3,27,0.00,,,0.00,WUHU216HW,2013-08-07 19:15:00,
2013-08-07 13:16:00,79.6,43.4,29.82,ENE,68,7.2,10.3,28,0.00,,,0.00,WUHU216HW,2013-08-07 19:16:00,
2013-08-07 13:18:00,79.7,44.6,29.82,NE,45,6.9,9.4,29,0.00,,,0.00,WUHU216HW,2013-08-07 19:18:00,
2013-08-07 13:20:00,79.7,41.5,29.82,NE,45,5.4,9.4,26,0.00,,,0.00,WUHU216HW,2013-08-07 19:20:00,
2013-08-07 13:21:00,79.9,40.6,29.82,East,90,6.5,10.5,25,0.00,,,0.00,WUHU216HW,2013-08-07 19:21:00,
2013-08-07 13:24:00,80.1,40.8,29.82,NNE,23,7.2,10.5,25,0.00,,,0.00,WUHU216HW,2013-08-07 19:24:00,
2013-08-07 13:25:00,80.3,40.9,29.82,NE,45,8.1,10.5,25,0.00,,,0.00,WUHU216HW,2013-08-07 19:25:00,
2013-08-07 13:26:00,80.5,41.0,29.82,ENE,68,12.5,13.4,25,0.00,,,0.00,WUHU216HW,2013-08-07 19:26:00,
2013-08-07 13:29:00,80.6,41.2,29.82,East,90,4.7,13.4,25,0.00,,,0.00,WUHU216HW,2013-08-07 19:29:00,
2013-08-07 13:30:00,80.6,41.2,29.82,ENE,68,9.4,13.4,25,0.00,,,0.00,WUHU216HW,2013-08-07 19:30:00,
2013-08-07 13:31:00,80.8,41.4,29.82,ENE,68,10.5,13.4,25,0.00,,,0.00,WUHU216HW,2013-08-07 19:31:00,
2013-08-07 13:32:00,80.6,41.2,29.82,NE,45,6.3,13.4,25,0.00,,,0.00,WUHU216HW,2013-08-07 19:32:00,
2013-08-07 13:34:00,80.6,40.1,29.82,ENE,68,6.5,13.4,24,0.00,,,0.00,WUHU216HW,2013-08-07 19:34:00,
2013-08-07 13:35:00,80.6,39.2,29.82,NE,45,10.5,13.4,23,0.00,,,0.00,WUHU216HW,2013-08-07 19:35:00,
2013-08-07 13:36:00,80.6,41.2,29.82,ENE,68,9.2,13.4,25,0.00,,,0.00,WUHU216HW,2013-08-07 19:36:00,
2013-08-07 13:37:00,80.6,40.1,29.82,ESE,113,10.5,12.5,24,0.00,,,0.00,WUHU216HW,2013-08-07 19:37:00,
2013-08-07 13:39:00,80.6,41.2,29.82,ENE,68,10.1,12.3,25,0.00,,,0.00,WUHU216HW,2013-08-07 19:39:00,
2013-08-07 13:40:00,80.6,41.2,29.82,NE,45,7.6,12.3,25,0.00,,,0.00,WUHU216HW,2013-08-07 19:40:00,
2013-08-07 13:41:00,80.6,41.2,29.82,NE,45,7.6,12.3,25,0.00,,,0.00,WUHU216HW,2013-08-07 19:41:00,
2013-08-07 13:42:00,80.6,42.3,29.82,NE,45,7.6,12.3,26,0.00,,,0.00,WUHU216HW,2013-08-07 19:42:00,
2013-08-07 13:44:00,80.3,40.9,29.82,NE,45,8.5,12.8,25,0.00,,,0.00,WUHU216HW,2013-08-07 19:44:00,
2013-08-07 13:46:00,80.3,40.9,29.82,NE,45,8.5,12.8,25,0.00,,,0.00,WUHU216HW,2013-08-07 19:46:00,
2013-08-07 13:47:00,80.3,40.9,29.82,NE,45,8.5,12.8,25,0.00,,,0.00,WUHU216HW,2013-08-07 19:47:00,
2013-08-07 13:49:00,80.3,40.9,29.82,NE,45,5.1,12.8,25,0.00,,,0.00,WUHU216HW,2013-08-07 19:49:00,
2013-08-07 13:51:00,80.3,40.9,29.82,ENE,68,6.9,12.8,25,0.00,,,0.00,WUHU216HW,2013-08-07 19:51:00,
2013-08-07 13:52:00,80.3,40.9,29.82,ENE,68,9.2,12.8,25,0.00,,,0.00,WUHU216HW,2013-08-07 19:52:00,
2013-08-07 13:54:00,80.6,41.2,29.82,ENE,68,9.4,13.0,25,0.00,,,0.00,WUHU216HW,2013-08-07 19:54:00,
2013-08-07 13:56:00,80.6,40.1,29.82,ENE,68,6.3,13.0,24,0.00,,,0.00,WUHU216HW,2013-08-07 19:56:00,
2013-08-07 13:57:00,80.6,41.2,29.82,ENE,68,4.0,13.0,25,0.00,,,0.00,WUHU216HW,2013-08-07 19:57:00,
2013-08-07 14:00:00,81.0,41.5,29.82,NE,45,9.2,13.0,25,0.00,,,0.00,WUHU216HW,2013-08-07 20:00:00,
2013-08-07 14:01:00,81.0,40.5,29.82,NE,45,8.1,13.0,24,0.00,,,0.00,WUHU216HW,2013-08-07 20:01:00,
2013-08-07 14:02:00,81.0,40.5,29.82,NNE,23,9.8,13.0,24,0.00,,,0.00,WUHU216HW,2013-08-07 20:02:00,
2013-08-07 14:05:00,81.2,40.6,29.82,NE,45,14.1,14.1,24,0.00,,,0.00,WUHU216HW,2013-08-07 20:05:00,
2013-08-07 14:06:00,81.4,40.8,29.82,ENE,68,8.5,14.1,24,0.00,,,0.00,WUHU216HW,2013-08-07 20:06:00,
2013-08-07 14:07:00,81.4,40.8,29.82,NE,45,9.2,14.1,24,0.00,,,0.00,WUHU216HW,2013-08-07 20:07:00,
2013-08-07 14:08:00,81.4,40.8,29.82,ENE,68,9.8,14.1,24,0.00,,,0.00,WUHU216HW,2013-08-07 20:08:00,
2013-08-07 14:10:00,81.2,40.6,29.82,NE,45,7.4,14.1,24,0.00,,,0.00,WUHU216HW,2013-08-07 20:10:00,
2013-08-07 14:11:00,81.2,41.7,29.82,NE,45,4.9,14.1,25,0.00,,,0.00,WUHU216HW,2013-08-07 20:11:00,
2013-08-07 14:12:00,81.0,39.4,29.82,NE,45,5.4,14.1,23,0.00,,,0.00,WUHU216HW,2013-08-07 20:12:00,
2013-08-07 14:13:00,81.2,40.6,29.81,NE,45,4.5,14.1,24,0.00,,,0.00,WUHU216HW,2013-08-07 20:13:00,
2013-08-07 14:15:00,81.2,41.7,29.81,NE,45,11.9,11.9,25,0.00,,,0.00,WUHU216HW,2013-08-07 20:15:00,
2013-08-07 14:17:00,81.4,40.8,29.82,NE,45,10.5,11.9,24,0.00,,,0.00,WUHU216HW,2013-08-07 20:17:00,
2013-08-07 14:18:00,81.5,39.9,29.82,NE,45,11.4,11.9,23,0.00,,,0.00,WUHU216HW,2013-08-07 20:18:00,
2013-08-07 14:20:00,81.5,39.9,29.81,North,0,3.4,11.9,23,0.00,,,0.00,WUHU216HW,2013-08-07 20:20:00,
2013-08-07 14:22:00,81.5,39.9,29.82,North,0,3.4,11.9,23,0.00,,,0.00,WUHU216HW,2013-08-07 20:22:00,
2013-08-07 14:23:00,81.5,39.9,29.82,North,0,3.4,11.9,23,0.00,,,0.00,WUHU216HW,2013-08-07 20:23:00,
2013-08-07 14:25:00,81.7,41.0,29.81,ENE,68,9.8,11.9,24,0.00,,,0.00,WUHU216HW,2013-08-07 20:25:00,
2013-08-07 14:27:00,81.7,39.0,29.82,ENE,68,4.3,11.4,22,0.00,,,0.00,WUHU216HW,2013-08-07 20:27:00,
2013-08-07 14:28:00,81.7,40.0,29.82,NE,45,4.7,11.4,23,0.00,,,0.00,WUHU216HW,2013-08-07 20:28:00,
2013-08-07 14:29:00,81.9,40.1,29.81,NE,45,5.4,10.5,23,0.00,,,0.00,WUHU216HW,2013-08-07 20:29:00,
2013-08-07 14:30:00,81.9,39.1,29.81,NE,45,7.2,12.1,22,0.00,,,0.00,WUHU216HW,2013-08-07 20:30:00,
2013-08-07 14:32:00,81.9,40.1,29.81,ENE,68,2.7,12.1,23,0.00,,,0.00,WUHU216HW,2013-08-07 20:32:00,
2013-08-07 14:33:00,81.9,39.1,29.81,ENE,68,9.8,12.1,22,0.00,,,0.00,WUHU216HW,2013-08-07 20:33:00,
2013-08-07 14:35:00,81.9,40.1,29.81,East,90,5.4,12.1,23,0.00,,,0.00,WUHU216HW,2013-08-07 20:35:00,
2013-08-07 14:36:00,81.9,39.1,29.81,East,90,5.4,12.1,22,0.00,,,0.00,WUHU216HW,2013-08-07 20:36:00,
2013-08-07 14:37:00,82.3,40.4,29.81,NE,45,8.7,12.1,23,0.00,,,0.00,WUHU216HW,2013-08-07 20:37:00,
2013-08-07 14:38:00,82.4,40.6,29.81,NNE,23,9.2,12.1,23,0.00,,,0.00,WUHU216HW,2013-08-07 20:38:00,
2013-08-07 14:39:00,82.4,39.5,29.81,NE,45,8.5,12.1,22,0.00,,,0.00,WUHU216HW,2013-08-07 20:39:00,
2013-08-07 14:40:00,82.6,40.7,29.81,ENE,68,7.8,11.6,23,0.00,,,0.00,WUHU216HW,2013-08-07 20:40:00,
2013-08-07 14:41:00,82.6,40.7,29.81,ENE,68,7.8,11.6,23,0.00,,,0.00,WUHU216HW,2013-08-07 20:41:00,
2013-08-07 14:42:00,82.6,38.6,29.81,NE,45,10.5,13.4,21,0.00,,,0.00,WUHU216HW,2013-08-07 20:42:00,
2013-08-07 14:43:00,82.4,39.5,29.81,ENE,68,12.1,13.4,22,0.00,,,0.00,WUHU216HW,2013-08-07 20:43:00,
2013-08-07 14:44:00,82.4,39.5,29.81,ENE,68,9.6,13.4,22,0.00,,,0.00,WUHU216HW,2013-08-07 20:44:00,
2013-08-07 14:45:00,82.4,39.5,29.81,NNE,23,1.8,13.4,22,0.00,,,0.00,WUHU216HW,2013-08-07 20:45:00,
2013-08-07 14:46:00,82.4,39.5,29.81,NNE,23,1.8,13.4,22,0.00,,,0.00,WUHU216HW,2013-08-07 20:46:00,
2013-08-07 14:47:00,82.8,40.9,29.81,North,0,8.9,13.4,23,0.00,,,0.00,WUHU216HW,2013-08-07 20:47:00,
2013-08-07 14:49:00,82.8,39.8,29.81,North,0,12.3,13.4,22,0.00,,,0.00,WUHU216HW,2013-08-07 20:49:00,
2013-08-07 14:51:00,82.6,39.7,29.81,North,0,8.3,13.4,22,0.00,,,0.00,WUHU216HW,2013-08-07 20:51:00,
2013-08-07 14:52:00,82.6,39.7,29.80,North,0,9.2,12.8,22,0.00,,,0.00,WUHU216HW,2013-08-07 20:52:00,
2013-08-07 14:54:00,82.4,38.5,29.81,ENE,68,13.4,13.4,21,0.00,,,0.00,WUHU216HW,2013-08-07 20:54:00,
2013-08-07 14:56:00,82.4,38.5,29.81,North,0,5.1,14.3,21,0.00,,,0.00,WUHU216HW,2013-08-07 20:56:00,
2013-08-07 14:57:00,82.4,38.5,29.80,NNE,23,5.4,14.3,21,0.00,,,0.00,WUHU216HW,2013-08-07 20:57:00,
2013-08-07 14:59:00,82.4,39.5,29.80,NE,45,11.6,14.3,22,0.00,,,0.00,WUHU216HW,2013-08-07 20:59:00,
2013-08-07 15:01:00,82.6,38.6,29.80,North,0,10.5,18.6,21,0.00,,,0.00,WUHU216HW,2013-08-07 21:01:00,
2013-08-07 15:02:00,82.6,38.6,29.80,North,0,9.2,18.6,21,0.00,,,0.00,WUHU216HW,2013-08-07 21:02:00,
2013-08-07 15:03:00,82.6,38.6,29.80,North,0,7.2,18.6,21,0.00,,,0.00,WUHU216HW,2013-08-07 21:03:00,
2013-08-07 15:04:00,82.4,38.5,29.80,NE,45,5.4,18.6,21,0.00,,,0.00,WUHU216HW,2013-08-07 21:04:00,
2013-08-07 15:05:00,82.4,38.5,29.80,NE,45,7.8,18.6,21,0.00,,,0.00,WUHU216HW,2013-08-07 21:05:00,
2013-08-07 15:06:00,82.6,38.6,29.80,East,90,11.9,18.6,21,0.00,,,0.00,WUHU216HW,2013-08-07 21:06:00,
2013-08-07 15:07:00,82.6,39.7,29.80,NE,45,13.9,18.6,22,0.00,,,0.00,WUHU216HW,2013-08-07 21:07:00,
2013-08-07 15:08:00,82.6,39.7,29.80,NNE,23,10.5,18.6,22,0.00,,,0.00,WUHU216HW,2013-08-07 21:08:00,
2013-08-07 15:09:00,83.0,36.2,29.80,NE,45,8.5,18.6,19,0.00,,,0.00,WUHU216HW,2013-08-07 21:09:00,
2013-08-07 15:10:00,83.0,37.9,29.80,NNE,23,9.2,18.6,20,0.00,,,0.00,WUHU216HW,2013-08-07 21:10:00,
2013-08-07 15:11:00,82.8,38.8,29.80,NNE,23,9.4,15.7,21,0.00,,,0.00,WUHU216HW,2013-08-07 21:11:00,
2013-08-07 15:12:00,82.8,38.8,29.80,NNE,23,9.8,15.0,21,0.00,,,0.00,WUHU216HW,2013-08-07 21:12:00,
2013-08-07 15:14:00,82.8,38.8,29.80,NE,45,7.6,15.0,21,0.00,,,0.00,WUHU216HW,2013-08-07 21:14:00,
2013-08-07 15:15:00,82.8,36.0,29.80,NE,45,9.6,15.0,19,0.00,,,0.00,WUHU216HW,2013-08-07 21:15:00,
2013-08-07 15:17:00,82.8,36.0,29.80,NNE,23,9.2,15.0,19,0.00,,,0.00,WUHU216HW,2013-08-07 21:17:00,
2013-08-07 15:19:00,83.0,38.9,29.80,ENE,68,5.4,12.8,21,0.00,,,0.00,WUHU216HW,2013-08-07 21:19:00,
2013-08-07 15:20:00,83.0,38.9,29.80,NNE,23,6.5,12.8,21,0.00,,,0.00,WUHU216HW,2013-08-07 21:20:00,
2013-08-07 15:22:00,83.0,36.2,29.80,NNE,23,9.6,12.8,19,0.00,,,0.00,WUHU216HW,2013-08-07 21:22:00,
2013-08-07 15:25:00,82.8,36.0,29.80,North,0,4.0,12.8,19,0.00,,,0.00,WUHU216HW,2013-08-07 21:25:00,
2013-08-07 15:27:00,82.6,35.9,29.80,North,0,0.9,12.8,19,0.00,,,0.00,WUHU216HW,2013-08-07 21:27:00,
2013-08-07 15:28:00,82.6,35.9,29.80,NNE,23,6.3,12.8,19,0.00,,,0.00,WUHU216HW,2013-08-07 21:28:00,
2013-08-07 15:30:00,82.6,35.9,29.80,NNE,23,4.9,12.8,19,0.00,,,0.00,WUHU216HW,2013-08-07 21:30:00,
2013-08-07 15:31:00,82.6,35.9,29.80,NNE,23,4.9,12.8,19,0.00,,,0.00,WUHU216HW,2013-08-07 21:31:00,
2013-08-07 15:32:00,83.2,36.4,29.80,NW,315,1.6,7.6,19,0.00,,,0.00,WUHU216HW,2013-08-07 21:32:00,
2013-08-07 15:33:00,83.3,39.3,29.80,NNW,338,4.3,7.6,21,0.00,,,0.00,WUHU216HW,2013-08-07 21:33:00,
2013-08-07 15:35:00,83.7,36.7,29.80,NE,45,11.0,11.0,19,0.00,,,0.00,WUHU216HW,2013-08-07 21:35:00,
2013-08-07 15:36:00,83.7,36.7,29.80,NNE,23,11.9,11.9,19,0.00,,,0.00,WUHU216HW,2013-08-07 21:36:00,
2013-08-07 15:38:00,83.5,36.6,29.80,North,0,7.6,12.5,19,0.00,,,0.00,WUHU216HW,2013-08-07 21:38:00,
2013-08-07 15:40:00,83.3,39.3,29.80,ENE,68,9.8,12.5,21,0.00,,,0.00,WUHU216HW,2013-08-07 21:40:00,
2013-08-07 15:41:00,83.3,39.3,29.80,East,90,9.8,12.5,21,0.00,,,0.00,WUHU216HW,2013-08-07 21:41:00,
2013-08-07 15:43:00,83.5,39.3,29.80,ENE,68,6.0,12.5,21,0.00,,,0.00,WUHU216HW,2013-08-07 21:43:00,
2013-08-07 15:46:00,83.5,36.6,29.79,ENE,68,8.3,12.5,19,0.00,,,0.00,WUHU216HW,2013-08-07 21:46:00,
2013-08-07 15:47:00,83.5,36.6,29.79,NNE,23,4.9,9.8,19,0.00,,,0.00,WUHU216HW,2013-08-07 21:47:00,
2013-08-07 15:48:00,83.9,36.9,29.79,ENE,68,9.2,9.8,19,0.00,,,0.00,WUHU216HW,2013-08-07 21:48:00,
2013-08-07 15:51:00,83.9,36.9,29.79,North,0,11.2,11.2,19,0.00,,,0.00,WUHU216HW,2013-08-07 21:51:00,
2013-08-07 15:52:00,83.9,36.9,29.80,NE,45,10.5,15.0,19,0.00,,,0.00,WUHU216HW,2013-08-07 21:52:00,
2013-08-07 15:53:00,83.7,33.3,29.79,NNE,23,9.4,15.0,17,0.00,,,0.00,WUHU216HW,2013-08-07 21:53:00,
2013-08-07 15:54:00,83.7,35.0,29.79,NE,45,7.4,15.0,18,0.00,,,0.00,WUHU216HW,2013-08-07 21:54:00,
2013-08-07 15:56:00,83.5,34.9,29.79,North,0,6.9,15.0,18,0.00,,,0.00,WUHU216HW,2013-08-07 21:56:00,
2013-08-07 15:57:00,83.7,33.3,29.79,NNE,23,7.2,15.0,17,0.00,,,0.00,WUHU216HW,2013-08-07 21:57:00,
2013-08-07 15:58:00,83.5,33.2,29.79,NNE,23,2.2,15.0,17,0.00,,,0.00,WUHU216HW,2013-08-07 21:58:00,
2013-08-07 15:59:00,83.5,34.9,29.79,NE,45,1.8,15.0,18,0.00,,,0.00,WUHU216HW,2013-08-07 21:59:00,
2013-08-07 16:01:00,83.7,35.0,29.79,ENE,68,6.9,15.0,18,0.00,,,0.00,WUHU216HW,2013-08-07 22:01:00,
2013-08-07 16:02:00,83.9,35.2,29.79,NNE,23,7.2,9.8,18,0.00,,,0.00,WUHU216HW,2013-08-07 22:02:00,
2013-08-07 16:04:00,84.1,35.3,29.79,North,0,7.6,12.8,18,0.00,,,0.00,WUHU216HW,2013-08-07 22:04:00,
2013-08-07 16:06:00,84.1,33.6,29.79,North,0,10.1,12.8,17,0.00,,,0.00,WUHU216HW,2013-08-07 22:06:00,
2013-08-07 16:07:00,84.1,33.6,29.79,NE,45,8.1,12.8,17,0.00,,,0.00,WUHU216HW,2013-08-07 22:07:00,
2013-08-07 16:09:00,83.9,33.5,29.79,North,0,7.4,12.8,17,0.00,,,0.00,WUHU216HW,2013-08-07 22:09:00,
2013-08-07 16:11:00,83.7,31.6,29.79,NW,315,6.7,12.8,16,0.00,,,0.00,WUHU216HW,2013-08-07 22:11:00,
2013-08-07 16:12:00,83.7,31.6,29.79,NW,315,6.7,12.8,16,0.00,,,0.00,WUHU216HW,2013-08-07 22:12:00,
2013-08-07 16:13:00,83.7,33.3,29.79,West,270,5.8,12.8,17,0.00,,,0.00,WUHU216HW,2013-08-07 22:13:00,
2013-08-07 16:14:00,83.9,33.5,29.79,NE,45,4.7,11.0,17,0.00,,,0.00,WUHU216HW,2013-08-07 22:14:00,
2013-08-07 16:15:00,83.9,33.5,29.79,NE,45,4.7,11.0,17,0.00,,,0.00,WUHU216HW,2013-08-07 22:15:00,
2013-08-07 16:16:00,83.9,33.5,29.79,NNE,23,6.3,10.1,17,0.00,,,0.00,WUHU216HW,2013-08-07 22:16:00,
2013-08-07 16:17:00,84.1,35.3,29.79,North,0,6.9,9.6,18,0.00,,,0.00,WUHU216HW,2013-08-07 22:17:00,
2013-08-07 16:18:00,84.1,33.6,29.79,NNW,338,7.6,9.6,17,0.00,,,0.00,WUHU216HW,2013-08-07 22:18:00,
2013-08-07 16:20:00,83.9,31.8,29.79,North,0,9.2,12.1,16,0.00,,,0.00,WUHU216HW,2013-08-07 22:20:00,
2013-08-07 16:21:00,83.7,33.3,29.79,NNW,338,5.6,12.1,17,0.00,,,0.00,WUHU216HW,2013-08-07 22:21:00,
2013-08-07 16:22:00,83.5,31.5,29.79,NNW,338,5.6,12.1,16,0.00,,,0.00,WUHU216HW,2013-08-07 22:22:00,
2013-08-07 16:23:00,83.5,31.5,29.79,North,0,4.0,12.1,16,0.00,,,0.00,WUHU216HW,2013-08-07 22:23:00,
2013-08-07 16:25:00,83.5,31.5,29.79,North,0,3.4,12.1,16,0.00,,,0.00,WUHU216HW,2013-08-07 22:25:00,
2013-08-07 16:26:00,83.5,33.2,29.79,NNW,338,5.6,12.1,17,0.00,,,0.00,WUHU216HW,2013-08-07 22:26:00,
2013-08-07 16:27:00,83.5,33.2,29.78,NNW,338,5.1,12.1,17,0.00,,,0.00,WUHU216HW,2013-08-07 22:27:00,
2013-08-07 16:29:00,83.5,33.2,29.78,North,0,3.6,12.1,17,0.00,,,0.00,WUHU216HW,2013-08-07 22:29:00,
2013-08-07 16:30:00,83.7,33.3,29.78,North,0,2.9,5.6,17,0.00,,,0.00,WUHU216HW,2013-08-07 22:30:00,
2013-08-07 16:32:00,83.9,35.2,29.79,NE,45,7.6,7.6,18,0.00,,,0.00,WUHU216HW,2013-08-07 22:32:00,
2013-08-07 16:34:00,84.1,35.3,29.78,NE,45,5.8,8.1,18,0.00,,,0.00,WUHU216HW,2013-08-07 22:34:00,
2013-08-07 16:35:00,84.2,35.5,29.78,NE,45,8.3,8.3,18,0.00,,,0.00,WUHU216HW,2013-08-07 22:35:00,
2013-08-07 16:37:00,84.2,33.8,29.78,NE,45,8.5,9.2,17,0.00,,,0.00,WUHU216HW,2013-08-07 22:37:00,
2013-08-07 16:40:00,84.4,35.7,29.78,NE,45,2.5,9.2,18,0.00,,,0.00,WUHU216HW,2013-08-07 22:40:00,
2013-08-07 16:41:00,84.4,35.7,29.78,East,90,4.5,9.2,18,0.00,,,0.00,WUHU216HW,2013-08-07 22:41:00,
2013-08-07 16:42:00,84.6,34.0,29.78,North,0,3.4,9.2,17,0.00,,,0.00,WUHU216HW,2013-08-07 22:42:00,
2013-08-07 16:43:00,84.6,34.0,29.78,North,0,3.4,9.2,17,0.00,,,0.00,WUHU216HW,2013-08-07 22:43:00,
2013-08-07 16:45:00,84.8,35.9,29.78,ENE,68,3.6,9.2,18,0.00,,,0.00,WUHU216HW,2013-08-07 22:45:00,
2013-08-07 16:46:00,84.8,32.5,29.78,NE,45,4.0,9.2,16,0.00,,,0.00,WUHU216HW,2013-08-07 22:46:00,
2013-08-07 16:47:00,85.0,34.3,29.78,North,0,8.3,8.3,17,0.00,,,0.00,WUHU216HW,2013-08-07 22:47:00,
2013-08-07 16:48:00,84.8,34.2,29.78,North,0,8.3,8.3,17,0.00,,,0.00,WUHU216HW,2013-08-07 22:48:00,
2013-08-07 16:50:00,84.8,34.2,29.78,NE,45,10.7,12.5,17,0.00,,,0.00,WUHU216HW,2013-08-07 22:50:00,
2013-08-07 16:51:00,84.6,34.0,29.78,NE,45,8.5,12.5,17,0.00,,,0.00,WUHU216HW,2013-08-07 22:51:00,
2013-08-07 16:53:00,84.2,33.8,29.78,NE,45,12.8,12.8,17,0.00,,,0.00,WUHU216HW,2013-08-07 22:53:00,
2013-08-07 16:55:00,84.1,33.6,29.78,NNE,23,6.7,14.5,17,0.00,,,0.00,WUHU216HW,2013-08-07 22:55:00,
2013-08-07 16:56:00,84.1,35.3,29.78,NE,45,4.3,14.5,18,0.00,,,0.00,WUHU216HW,2013-08-07 22:56:00,
2013-08-07 16:57:00,84.1,33.6,29.78,NE,45,7.6,14.5,17,0.00,,,0.00,WUHU216HW,2013-08-07 22:57:00,
2013-08-07 16:58:00,84.1,33.6,29.78,ENE,68,5.8,14.5,17,0.00,,,0.00,WUHU216HW,2013-08-07 22:58:00,
2013-08-07 17:00:00,84.2,35.5,29.78,NE,45,8.7,14.5,18,0.00,,,0.00,WUHU216HW,2013-08-07 23:00:00,
2013-08-07 17:01:00,84.2,35.5,29.78,ENE,68,8.5,14.5,18,0.00,,,0.00,WUHU216HW,2013-08-07 23:01:00,
2013-08-07 17:02:00,84.2,35.5,29.78,ENE,68,8.5,14.5,18,0.00,,,0.00,WUHU216HW,2013-08-07 23:02:00,
2013-08-07 17:03:00,84.2,33.8,29.78,NE,45,7.6,14.5,17,0.00,,,0.00,WUHU216HW,2013-08-07 23:03:00,
2013-08-07 17:04:00,84.2,35.5,29.78,NNE,23,6.5,14.5,18,0.00,,,0.00,WUHU216HW,2013-08-07 23:04:00,
2013-08-07 17:05:00,84.4,35.7,29.78,ENE,68,5.6,11.2,18,0.00,,,0.00,WUHU216HW,2013-08-07 23:05:00,
2013-08-07 17:07:00,84.6,34.0,29.78,ESE,113,4.7,11.2,17,0.00,,,0.00,WUHU216HW,2013-08-07 23:07:00,
2013-08-07 17:09:00,84.8,35.9,29.78,East,90,4.3,11.2,18,0.00,,,0.00,WUHU216HW,2013-08-07 23:09:00,
2013-08-07 17:10:00,85.3,36.4,29.78,East,90,4.3,11.2,18,0.00,,,0.00,WUHU216HW,2013-08-07 23:10:00,
2013-08-07 17:12:00,85.9,36.7,29.78,ESE,113,2.9,8.5,18,0.00,,,0.00,WUHU216HW,2013-08-07 23:12:00,
2013-08-07 17:14:00,86.8,35.8,29.78,ESE,113,1.1,5.6,17,0.00,,,0.00,WUHU216HW,2013-08-07 23:14:00,
2013-08-07 17:16:00,87.1,36.1,29.78,West,270,0.4,5.4,17,0.00,,,0.00,WUHU216HW,2013-08-07 23:16:00,
2013-08-07 17:17:00,87.3,36.3,29.78,ENE,68,2.0,5.1,17,0.00,,,0.00,WUHU216HW,2013-08-07 23:17:00,
2013-08-07 17:19:00,86.9,34.3,29.78,NE,45,0.7,4.3,16,0.00,,,0.00,WUHU216HW,2013-08-07 23:19:00,
2013-08-07 17:21:00,86.8,35.8,29.78,South,180,3.8,5.4,17,0.00,,,0.00,WUHU216HW,2013-08-07 23:21:00,
2013-08-07 17:22:00,86.8,35.8,29.77,SE,135,4.3,5.4,17,0.00,,,0.00,WUHU216HW,2013-08-07 23:22:00,
2013-08-07 17:23:00,86.8,35.8,29.77,SSE,158,4.3,5.4,17,0.00,,,0.00,WUHU216HW,2013-08-07 23:23:00,
2013-08-07 17:24:00,86.8,37.5,29.77,SSE,158,4.3,5.4,18,0.00,,,0.00,WUHU216HW,2013-08-07 23:24:00,
2013-08-07 17:26:00,86.6,37.4,29.77,SSE,158,6.3,6.3,18,0.00,,,0.00,WUHU216HW,2013-08-07 23:26:00,
2013-08-07 17:27:00,86.8,37.5,29.77,SSW,203,7.8,7.8,18,0.00,,,0.00,WUHU216HW,2013-08-07 23:27:00,
2013-08-07 17:28:00,86.8,37.5,29.77,SE,135,6.7,7.8,18,0.00,,,0.00,WUHU216HW,2013-08-07 23:28:00,
2013-08-07 17:29:00,86.8,37.5,29.77,SE,135,5.4,7.8,18,0.00,,,0.00,WUHU216HW,2013-08-07 23:29:00,
2013-08-07 17:31:00,86.9,37.7,29.77,SSE,158,4.5,7.8,18,0.00,,,0.00,WUHU216HW,2013-08-07 23:31:00,
2013-08-07 17:32:00,87.1,37.9,29.77,SSW,203,6.0,7.8,18,0.00,,,0.00,WUHU216HW,2013-08-07 23:32:00,
2013-08-07 17:33:00,87.5,38.2,29.77,SSW,203,7.6,8.3,18,0.00,,,0.00,WUHU216HW,2013-08-07 23:33:00,
2013-08-07 17:34:00,87.8,38.5,29.77,SW,225,8.5,8.5,18,0.00,,,0.00,WUHU216HW,2013-08-07 23:34:00,
2013-08-07 17:36:00,87.8,38.5,29.77,SSW,203,8.5,8.5,18,0.00,,,0.00,WUHU216HW,2013-08-07 23:36:00,
2013-08-07 17:37:00,88.2,37.0,29.77,SSW,203,7.8,8.5,17,0.00,,,0.00,WUHU216HW,2013-08-07 23:37:00,
2013-08-07 17:38:00,88.6,37.4,29.77,East,90,3.8,8.5,17,0.00,,,0.00,WUHU216HW,2013-08-07 23:38:00,
2013-08-07 17:39:00,88.7,37.4,29.77,South,180,7.8,8.5,17,0.00,,,0.00,WUHU216HW,2013-08-07 23:39:00,
2013-08-07 17:40:00,88.7,37.4,29.77,SSE,158,5.6,8.5,17,0.00,,,0.00,WUHU216HW,2013-08-07 23:40:00,
2013-08-07 17:41:00,88.9,37.6,29.77,SE,135,5.1,8.5,17,0.00,,,0.00,WUHU216HW,2013-08-07 23:41:00,
2013-08-07 17:42:00,89.1,37.7,29.77,South,180,7.4,8.5,17,0.00,,,0.00,WUHU216HW,2013-08-07 23:42:00,
2013-08-07 17:43:00,89.1,36.0,29.77,SE,135,4.9,8.5,16,0.00,,,0.00,WUHU216HW,2013-08-07 23:43:00,
2013-08-07 17:45:00,89.3,37.9,29.77,SSE,158,4.7,8.5,17,0.00,,,0.00,WUHU216HW,2013-08-07 23:45:00,
2013-08-07 17:46:00,89.5,36.3,29.77,South,180,8.7,8.7,16,0.00,,,0.00,WUHU216HW,2013-08-07 23:46:00,
2013-08-07 17:47:00,89.5,38.0,29.77,SSW,203,8.5,8.7,17,0.00,,,0.00,WUHU216HW,2013-08-07 23:47:00,
2013-08-07 17:49:00,89.3,37.9,29.77,SSW,203,4.5,8.7,17,0.00,,,0.00,WUHU216HW,2013-08-07 23:49:00,
2013-08-07 17:50:00,89.3,37.9,29.77,SSW,203,4.7,8.7,17,0.00,,,0.00,WUHU216HW,2013-08-07 23:50:00,
2013-08-07 17:51:00,89.3,37.9,29.77,SSW,203,5.6,8.7,17,0.00,,,0.00,WUHU216HW,2013-08-07 23:51:00,
2013-08-07 17:52:00,89.3,37.9,29.77,South,180,6.9,9.2,17,0.00,,,0.00,WUHU216HW,2013-08-07 23:52:00,
2013-08-07 17:54:00,89.5,38.0,29.77,SSW,203,4.7,9.2,17,0.00,,,0.00,WUHU216HW,2013-08-07 23:54:00,
2013-08-07 17:55:00,89.6,38.2,29.77,SSW,203,4.7,9.2,17,0.00,,,0.00,WUHU216HW,2013-08-07 23:55:00,
2013-08-07 17:56:00,89.6,36.4,29.77,South,180,7.4,9.2,16,0.00,,,0.00,WUHU216HW,2013-08-07 23:56:00,
2013-08-07 17:58:00,89.6,36.4,29.77,SSE,158,2.2,9.2,16,0.00,,,0.00,WUHU216HW,2013-08-07 23:58:00,
2013-08-07 17:59:00,89.6,38.2,29.77,ESE,113,2.0,9.2,17,0.00,,,0.00,WUHU216HW,2013-08-07 23:59:00,
2013-08-07 18:00:00,89.6,38.2,29.77,SE,135,2.7,9.2,17,0.00,,,0.00,WUHU216HW,2013-08-08 00:00:00,
2013-08-07 18:01:00,89.6,38.2,29.77,SSE,158,0.4,9.2,17,0.00,,,0.00,WUHU216HW,2013-08-08 00:01:00,
2013-08-07 18:03:00,89.8,38.3,29.77,ESE,113,3.1,8.9,17,0.00,,,0.00,WUHU216HW,2013-08-08 00:03:00,
2013-08-07 18:04:00,90.0,38.4,29.77,SE,135,3.1,8.9,17,0.00,,,0.00,WUHU216HW,2013-08-08 00:04:00,
2013-08-07 18:05:00,90.0,38.4,29.77,ESE,113,1.8,8.9,17,0.00,,,0.00,WUHU216HW,2013-08-08 00:05:00,
2013-08-07 18:06:00,90.2,38.6,29.77,SE,135,3.1,8.9,17,0.00,,,0.00,WUHU216HW,2013-08-08 00:06:00,
2013-08-07 18:07:00,90.4,38.7,29.77,SSE,158,4.5,7.4,17,0.00,,,0.00,WUHU216HW,2013-08-08 00:07:00,
2013-08-07 18:08:00,90.5,37.1,29.77,SSE,158,4.7,6.3,16,0.00,,,0.00,WUHU216HW,2013-08-08 00:08:00,
2013-08-07 18:09:00,90.5,35.4,29.77,SSW,203,8.3,8.3,15,0.00,,,0.00,WUHU216HW,2013-08-08 00:09:00,
2013-08-07 18:10:00,90.5,37.1,29.77,South,180,9.4,9.4,16,0.00,,,0.00,WUHU216HW,2013-08-08 00:10:00,
2013-08-07 18:11:00,90.5,35.4,29.77,South,180,8.3,9.4,15,0.00,,,0.00,WUHU216HW,2013-08-08 00:11:00,
2013-08-07 18:12:00,90.7,35.6,29.77,South,180,10.1,10.1,15,0.00,,,0.00,WUHU216HW,2013-08-08 00:12:00,
2013-08-07 18:13:00,90.5,35.4,29.77,SSE,158,7.6,10.1,15,0.00,,,0.00,WUHU216HW,2013-08-08 00:13:00,
2013-08-07 18:14:00,90.4,35.2,29.77,SSE,158,9.2,10.1,15,0.00,,,0.00,WUHU216HW,2013-08-08 00:14:00,
2013-08-07 18:15:00,90.4,35.2,29.76,South,180,8.9,10.1,15,0.00,,,0.00,WUHU216HW,2013-08-08 00:15:00,
2013-08-07 18:16:00,90.2,35.1,29.76,SSE,158,8.5,10.7,15,0.00,,,0.00,WUHU216HW,2013-08-08 00:16:00,
2013-08-07 18:17:00,90.0,34.9,29.76,South,180,7.8,10.7,15,0.00,,,0.00,WUHU216HW,2013-08-08 00:17:00,
2013-08-07 18:18:00,90.2,35.1,29.76,SSE,158,6.5,11.0,15,0.00,,,0.00,WUHU216HW,2013-08-08 00:18:00,
2013-08-07 18:19:00,90.0,36.7,29.76,SSE,158,7.6,11.0,16,0.00,,,0.00,WUHU216HW,2013-08-08 00:19:00,
2013-08-07 18:21:00,90.0,36.7,29.76,South,180,7.6,11.0,16,0.00,,,0.00,WUHU216HW,2013-08-08 00:21:00,
2013-08-07 18:22:00,90.0,34.9,29.76,South,180,7.6,11.0,15,0.00,,,0.00,WUHU216HW,2013-08-08 00:22:00,
2013-08-07 18:24:00,89.8,36.5,29.76,South,180,9.6,11.0,16,0.00,,,0.00,WUHU216HW,2013-08-08 00:24:00,
2013-08-07 18:25:00,89.8,34.8,29.76,South,180,6.3,11.0,15,0.00,,,0.00,WUHU216HW,2013-08-08 00:25:00,
2013-08-07 18:26:00,89.6,34.7,29.76,SE,135,10.1,11.0,15,0.00,,,0.00,WUHU216HW,2013-08-08 00:26:00,
2013-08-07 18:28:00,89.6,34.7,29.76,SSE,158,9.2,10.5,15,0.00,,,0.00,WUHU216HW,2013-08-08 00:28:00,
2013-08-07 18:29:00,89.6,34.7,29.76,SW,225,8.7,10.5,15,0.00,,,0.00,WUHU216HW,2013-08-08 00:29:00,
2013-08-07 18:30:00,89.6,34.7,29.76,South,180,10.5,10.5,15,0.00,,,0.00,WUHU216HW,2013-08-08 00:30:00,
2013-08-07 18:31:00,89.5,36.3,29.76,South,180,9.8,10.5,16,0.00,,,0.00,WUHU216HW,2013-08-08 00:31:00,
2013-08-07 18:32:00,89.5,34.5,29.76,South,180,8.9,10.5,15,0.00,,,0.00,WUHU216HW,2013-08-08 00:32:00,
2013-08-07 18:33:00,89.5,36.3,29.76,SSW,203,7.6,10.5,16,0.00,,,0.00,WUHU216HW,2013-08-08 00:33:00,
2013-08-07 18:34:00,89.5,36.3,29.76,SSE,158,9.8,10.5,16,0.00,,,0.00,WUHU216HW,2013-08-08 00:34:00,
2013-08-07 18:35:00,89.5,36.3,29.76,South,180,7.4,10.5,16,0.00,,,0.00,WUHU216HW,2013-08-08 00:35:00,
2013-08-07 18:37:00,89.5,36.3,29.76,SSE,158,6.0,10.5,16,0.00,,,0.00,WUHU216HW,2013-08-08 00:37:00,
2013-08-07 18:38:00,89.5,36.3,29.76,SSW,203,8.1,10.5,16,0.00,,,0.00,WUHU216HW,2013-08-08 00:38:00,
2013-08-07 18:39:00,89.5,34.5,29.76,South,180,10.5,10.5,15,0.00,,,0.00,WUHU216HW,2013-08-08 00:39:00,
2013-08-07 18:40:00,89.5,34.5,29.76,South,180,8.5,10.5,15,0.00,,,0.00,WUHU216HW,2013-08-08 00:40:00,
2013-08-07 18:42:00,89.5,36.3,29.77,SSW,203,6.9,10.5,16,0.00,,,0.00,WUHU216HW,2013-08-08 00:42:00,
2013-08-07 18:43:00,89.3,34.4,29.76,South,180,7.6,10.5,15,0.00,,,0.00,WUHU216HW,2013-08-08 00:43:00,
2013-08-07 18:44:00,89.3,34.4,29.76,SSE,158,9.8,10.5,15,0.00,,,0.00,WUHU216HW,2013-08-08 00:44:00,
2013-08-07 18:46:00,89.3,34.4,29.76,SSE,158,8.5,10.5,15,0.00,,,0.00,WUHU216HW,2013-08-08 00:46:00,
2013-08-07 18:47:00,89.3,36.1,29.76,SSE,158,10.5,10.5,16,0.00,,,0.00,WUHU216HW,2013-08-08 00:47:00,
2013-08-07 18:48:00,89.3,34.4,29.76,SE,135,9.6,10.7,15,0.00,,,0.00,WUHU216HW,2013-08-08 00:48:00,
2013-08-07 18:49:00,89.1,34.2,29.76,SSE,158,8.9,10.7,15,0.00,,,0.00,WUHU216HW,2013-08-08 00:49:00,
2013-08-07 18:51:00,88.9,35.8,29.76,ESE,113,3.8,10.7,16,0.00,,,0.00,WUHU216HW,2013-08-08 00:51:00,
2013-08-07 18:52:00,89.1,37.7,29.77,SSE,158,4.0,10.7,17,0.00,,,0.00,WUHU216HW,2013-08-08 00:52:00,
2013-08-07 18:53:00,89.1,36.0,29.77,SSE,158,6.7,10.7,16,0.00,,,0.00,WUHU216HW,2013-08-08 00:53:00,
2013-08-07 18:54:00,89.1,36.0,29.76,SE,135,8.5,10.7,16,0.00,,,0.00,WUHU216HW,2013-08-08 00:54:00,
2013-08-07 18:56:00,89.3,36.1,29.76,SSE,158,4.9,10.7,16,0.00,,,0.00,WUHU216HW,2013-08-08 00:56:00,
2013-08-07 18:57:00,89.5,36.3,29.76,SE,135,6.3,10.7,16,0.00,,,0.00,WUHU216HW,2013-08-08 00:57:00,
2013-08-07 18:58:00,89.5,36.3,29.76,SE,135,5.4,10.5,16,0.00,,,0.00,WUHU216HW,2013-08-08 00:58:00,
2013-08-07 18:59:00,89.6,36.4,29.77,SE,135,3.1,8.9,16,0.00,,,0.00,WUHU216HW,2013-08-08 00:59:00,
2013-08-07 19:00:00,89.6,36.4,29.77,SE,135,5.1,8.5,16,0.00,,,0.00,WUHU216HW,2013-08-08 01:00:00,
2013-08-07 19:01:00,89.6,34.7,29.77,SSE,158,5.4,8.5,15,0.00,,,0.00,WUHU216HW,2013-08-08 01:01:00,
2013-08-07 19:02:00,89.8,36.5,29.77,SE,135,3.6,8.5,16,0.00,,,0.00,WUHU216HW,2013-08-08 01:02:00,
2013-08-07 19:03:00,89.8,36.5,29.77,SE,135,5.1,8.5,16,0.00,,,0.00,WUHU216HW,2013-08-08 01:03:00,
2013-08-07 19:04:00,90.0,36.7,29.77,SSE,158,5.4,7.4,16,0.00,,,0.00,WUHU216HW,2013-08-08 01:04:00,
2013-08-07 19:05:00,90.0,36.7,29.77,SE,135,5.4,7.4,16,0.00,,,0.00,WUHU216HW,2013-08-08 01:05:00,
2013-08-07 19:07:00,90.2,36.8,29.77,ESE,113,3.4,7.4,16,0.00,,,0.00,WUHU216HW,2013-08-08 01:07:00,
2013-08-07 19:09:00,90.4,38.7,29.77,ESE,113,4.7,7.4,17,0.00,,,0.00,WUHU216HW,2013-08-08 01:09:00,
2013-08-07 19:10:00,90.7,37.3,29.77,SE,135,4.7,7.4,16,0.00,,,0.00,WUHU216HW,2013-08-08 01:10:00,
2013-08-07 19:12:00,91.1,39.3,29.77,SSE,158,3.8,6.3,17,0.00,,,0.00,WUHU216HW,2013-08-08 01:12:00,
2013-08-07 19:13:00,91.3,39.4,29.77,SE,135,4.5,6.3,17,0.00,,,0.00,WUHU216HW,2013-08-08 01:13:00,
2013-08-07 19:14:00,91.6,39.7,29.77,SSE,158,3.4,6.3,17,0.00,,,0.00,WUHU216HW,2013-08-08 01:14:00,
2013-08-07 19:15:00,91.8,39.9,29.77,SE,135,4.7,6.3,17,0.00,,,0.00,WUHU216HW,2013-08-08 01:15:00,
2013-08-07 19:18:00,92.2,38.3,29.77,SE,135,3.6,6.3,16,0.00,,,0.00,WUHU216HW,2013-08-08 01:18:00,
2013-08-07 19:19:00,92.3,38.5,29.77,SE,135,4.0,5.4,16,0.00,,,0.00,WUHU216HW,2013-08-08 01:19:00,
2013-08-07 19:20:00,92.5,38.7,29.77,ESE,113,2.7,5.4,16,0.00,,,0.00,WUHU216HW,2013-08-08 01:20:00,
2013-08-07 19:23:00,92.5,36.9,29.77,ESE,113,5.8,6.3,15,0.00,,,0.00,WUHU216HW,2013-08-08 01:23:00,
2013-08-07 19:24:00,92.5,36.9,29.77,SSE,158,4.0,6.7,15,0.00,,,0.00,WUHU216HW,2013-08-08 01:24:00,
2013-08-07 19:25:00,92.5,36.9,29.77,SSW,203,4.3,6.7,15,0.00,,,0.00,WUHU216HW,2013-08-08 01:25:00,
2013-08-07 19:28:00,92.5,36.9,29.77,SSW,203,5.4,6.7,15,0.00,,,0.00,WUHU216HW,2013-08-08 01:28:00,
2013-08-07 19:29:00,92.5,36.9,29.76,South,180,4.0,6.7,15,0.00,,,0.00,WUHU216HW,2013-08-08 01:29:00,
2013-08-07 19:30:00,92.7,38.8,29.77,SSW,203,4.0,6.7,16,0.00,,,0.00,WUHU216HW,2013-08-08 01:30:00,
2013-08-07 19:33:00,92.7,37.1,29.76,South,180,6.3,6.9,15,0.00,,,0.00,WUHU216HW,2013-08-08 01:33:00,
2013-08-07 19:34:00,92.7,37.1,29.76,SSW,203,4.3,6.9,15,0.00,,,0.00,WUHU216HW,2013-08-08 01:34:00,
2013-08-07 19:35:00,92.7,37.1,29.76,South,180,4.7,6.9,15,0.00,,,0.00,WUHU216HW,2013-08-08 01:35:00,
2013-08-07 19:38:00,92.9,37.2,29.76,SW,225,4.5,6.9,15,0.00,,,0.00,WUHU216HW,2013-08-08 01:38:00,
2013-08-07 19:39:00,93.1,37.3,29.76,SW,225,3.1,6.9,15,0.00,,,0.00,WUHU216HW,2013-08-08 01:39:00,
2013-08-07 19:40:00,93.2,37.4,29.76,SW,225,4.5,6.9,15,0.00,,,0.00,WUHU216HW,2013-08-08 01:40:00,
2013-08-07 19:43:00,93.2,39.3,29.77,SSW,203,2.9,5.6,16,0.00,,,0.00,WUHU216HW,2013-08-08 01:43:00,
2013-08-07 19:44:00,93.6,39.5,29.77,SSW,203,2.0,5.6,16,0.00,,,0.00,WUHU216HW,2013-08-08 01:44:00,
2013-08-07 19:45:00,93.6,39.5,29.77,SSW,203,4.0,5.6,16,0.00,,,0.00,WUHU216HW,2013-08-08 01:45:00,
2013-08-07 19:46:00,93.8,39.6,29.77,SSW,203,2.5,5.6,16,0.00,,,0.00,WUHU216HW,2013-08-08 01:46:00,
2013-08-07 19:48:00,93.6,39.5,29.76,SSW,203,2.9,5.6,16,0.00,,,0.00,WUHU216HW,2013-08-08 01:48:00,
2013-08-07 19:49:00,93.4,39.3,29.77,SSW,203,3.6,5.6,16,0.00,,,0.00,WUHU216HW,2013-08-08 01:49:00,
2013-08-07 19:50:00,93.2,39.3,29.77,SW,225,4.7,5.6,16,0.00,,,0.00,WUHU216HW,2013-08-08 01:50:00,
2013-08-07 19:51:00,93.1,39.1,29.77,SSW,203,4.3,5.6,16,0.00,,,0.00,WUHU216HW,2013-08-08 01:51:00,
2013-08-07 19:53:00,92.2,38.3,29.77,SSW,203,4.7,5.1,16,0.00,,,0.00,WUHU216HW,2013-08-08 01:53:00,
2013-08-07 19:54:00,91.6,38.0,29.77,SW,225,3.4,5.1,16,0.00,,,0.00,WUHU216HW,2013-08-08 01:54:00,
2013-08-07 19:55:00,91.3,39.4,29.77,SW,225,4.5,5.1,17,0.00,,,0.00,WUHU216HW,2013-08-08 01:55:00,
2013-08-07 19:56:00,90.9,39.2,29.77,SSW,203,4.5,5.1,17,0.00,,,0.00,WUHU216HW,2013-08-08 01:56:00,
2013-08-07 19:58:00,90.0,38.4,29.77,SW,225,3.4,5.1,17,0.00,,,0.00,WUHU216HW,2013-08-08 01:58:00,
2013-08-07 20:00:00,89.3,37.9,29.77,SW,225,3.4,5.1,17,0.00,,,0.00,WUHU216HW,2013-08-08 02:00:00,
2013-08-07 20:01:00,88.7,37.4,29.77,WSW,248,2.9,5.1,17,0.00,,,0.00,WUHU216HW,2013-08-08 02:01:00,
2013-08-07 20:03:00,88.0,36.9,29.77,SW,225,1.8,4.7,17,0.00,,,0.00,WUHU216HW,2013-08-08 02:03:00,
2013-08-07 20:05:00,87.7,38.4,29.77,WSW,248,1.8,4.5,18,0.00,,,0.00,WUHU216HW,2013-08-08 02:05:00,
2013-08-07 20:06:00,87.3,38.0,29.77,WSW,248,2.5,3.8,18,0.00,,,0.00,WUHU216HW,2013-08-08 02:06:00,
2013-08-07 20:08:00,86.2,37.1,29.77,WSW,248,6.0,6.0,18,0.00,,,0.00,WUHU216HW,2013-08-08 02:08:00,
2013-08-07 20:10:00,85.3,38.1,29.77,West,270,6.5,7.4,19,0.00,,,0.00,WUHU216HW,2013-08-08 02:10:00,
2013-08-07 20:11:00,84.1,37.0,29.77,WSW,248,7.8,7.8,19,0.00,,,0.00,WUHU216HW,2013-08-08 02:11:00,
2013-08-07 20:12:00,83.3,38.2,29.77,WSW,248,7.8,8.1,20,0.00,,,0.00,WUHU216HW,2013-08-08 02:12:00,
2013-08-07 20:14:00,81.4,38.7,29.77,WSW,248,8.5,8.9,22,0.00,,,0.00,WUHU216HW,2013-08-08 02:14:00,
2013-08-07 20:15:00,80.5,37.9,29.77,WSW,248,8.7,8.9,22,0.00,,,0.00,WUHU216HW,2013-08-08 02:15:00,
2013-08-07 20:16:00,79.6,37.1,29.77,WSW,248,7.8,9.4,22,0.00,,,0.00,WUHU216HW,2013-08-08 02:16:00,
2013-08-07 20:17:00,79.4,38.0,29.77,WSW,248,7.8,9.4,23,0.00,,,0.00,WUHU216HW,2013-08-08 02:17:00,
2013-08-07 20:19:00,78.3,37.1,29.77,WSW,248,7.6,9.4,23,0.00,,,0.00,WUHU216HW,2013-08-08 02:19:00,
2013-08-07 20:20:00,77.9,37.8,29.77,WSW,248,7.6,9.4,24,0.00,,,0.00,WUHU216HW,2013-08-08 02:20:00,
2013-08-07 20:21:00,77.6,37.5,29.77,WSW,248,8.3,9.4,24,0.00,,,0.00,WUHU216HW,2013-08-08 02:21:00,
2013-08-07 20:22:00,77.4,37.5,29.77,WSW,248,8.3,9.4,24,0.00,,,0.00,WUHU216HW,2013-08-08 02:22:00,
2013-08-07 20:24:00,76.9,38.0,29.77,West,270,9.2,10.5,25,0.00,,,0.00,WUHU216HW,2013-08-08 02:24:00,
2013-08-07 20:25:00,76.7,37.9,29.77,West,270,8.5,10.5,25,0.00,,,0.00,WUHU216HW,2013-08-08 02:25:00,
2013-08-07 20:27:00,76.3,37.5,29.77,West,270,9.4,10.5,25,0.00,,,0.00,WUHU216HW,2013-08-08 02:27:00,
2013-08-07 20:29:00,75.6,36.9,29.77,WSW,248,10.1,10.5,25,0.00,,,0.00,WUHU216HW,2013-08-08 02:29:00,
2013-08-07 20:30:00,75.6,38.0,29.77,West,270,8.9,10.5,26,0.00,,,0.00,WUHU216HW,2013-08-08 02:30:00,
2013-08-07 20:32:00,75.2,37.6,29.77,West,270,9.8,10.5,26,0.00,,,0.00,WUHU216HW,2013-08-08 02:32:00,
2013-08-07 20:34:00,74.5,37.1,29.77,West,270,8.5,10.1,26,0.00,,,0.00,WUHU216HW,2013-08-08 02:34:00,
2013-08-07 20:35:00,74.5,38.1,29.77,WSW,248,8.9,10.1,27,0.00,,,0.00,WUHU216HW,2013-08-08 02:35:00,
2013-08-07 20:37:00,74.2,38.8,29.77,WSW,248,9.2,10.1,28,0.00,,,0.00,WUHU216HW,2013-08-08 02:37:00,
2013-08-07 20:38:00,74.2,38.8,29.77,West,270,8.3,10.1,28,0.00,,,0.00,WUHU216HW,2013-08-08 02:38:00,
2013-08-07 20:40:00,73.8,38.4,29.77,West,270,9.2,10.1,28,0.00,,,0.00,WUHU216HW,2013-08-08 02:40:00,
2013-08-07 20:43:00,73.4,38.2,29.77,WSW,248,9.4,10.1,28,0.00,,,0.00,WUHU216HW,2013-08-08 02:43:00,
2013-08-07 20:45:00,73.3,39.0,29.77,WSW,248,8.3,9.8,29,0.00,,,0.00,WUHU216HW,2013-08-08 02:45:00,
2013-08-07 20:48:00,72.9,38.7,29.77,West,270,8.9,9.8,29,0.00,,,0.00,WUHU216HW,2013-08-08 02:48:00,
2013-08-07 20:50:00,72.7,38.5,29.78,West,270,8.3,9.8,29,0.00,,,0.00,WUHU216HW,2013-08-08 02:50:00,
2013-08-07 20:53:00,72.4,38.3,29.78,WNW,293,8.1,9.8,29,0.00,,,0.00,WUHU216HW,2013-08-08 02:53:00,
2013-08-07 20:54:00,72.4,38.3,29.78,WNW,293,8.7,9.6,29,0.00,,,0.00,WUHU216HW,2013-08-08 02:54:00,
2013-08-07 20:55:00,72.4,37.3,29.78,WNW,293,7.6,9.6,28,0.00,,,0.00,WUHU216HW,2013-08-08 02:55:00,
2013-08-07 20:58:00,72.5,37.4,29.78,West,270,7.6,9.6,28,0.00,,,0.00,WUHU216HW,2013-08-08 02:58:00,
2013-08-07 20:59:00,72.4,37.3,29.78,NW,315,4.7,9.6,28,0.00,,,0.00,WUHU216HW,2013-08-08 02:59:00,
2013-08-07 21:00:00,72.5,37.4,29.78,NW,315,8.1,9.4,28,0.00,,,0.00,WUHU216HW,2013-08-08 03:00:00,
2013-08-07 21:01:00,72.5,37.4,29.78,NW,315,8.1,9.4,28,0.00,,,0.00,WUHU216HW,2013-08-08 03:01:00,
2013-08-07 21:03:00,72.4,37.3,29.78,NW,315,8.7,9.4,28,0.00,,,0.00,WUHU216HW,2013-08-08 03:03:00,
2013-08-07 21:04:00,72.5,38.4,29.78,NW,315,8.7,10.1,29,0.00,,,0.00,WUHU216HW,2013-08-08 03:04:00,
2013-08-07 21:05:00,72.5,38.4,29.78,WSW,248,6.9,10.1,29,0.00,,,0.00,WUHU216HW,2013-08-08 03:05:00,
2013-08-07 21:06:00,72.7,38.5,29.79,NW,315,5.8,10.1,29,0.00,,,0.00,WUHU216HW,2013-08-08 03:06:00,
2013-08-07 21:09:00,73.1,37.8,29.79,West,270,8.1,10.1,28,0.00,,,0.00,WUHU216HW,2013-08-08 03:09:00,
2013-08-07 21:10:00,73.1,37.8,29.78,West,270,8.3,10.1,28,0.00,,,0.00,WUHU216HW,2013-08-08 03:10:00,
2013-08-07 21:11:00,73.1,37.8,29.78,West,270,6.9,10.1,28,0.00,,,0.00,WUHU216HW,2013-08-08 03:11:00,
2013-08-07 21:14:00,72.5,38.4,29.79,West,270,6.3,8.7,29,0.00,,,0.00,WUHU216HW,2013-08-08 03:14:00,
2013-08-07 21:15:00,72.4,38.3,29.79,West,270,6.3,8.3,29,0.00,,,0.00,WUHU216HW,2013-08-08 03:15:00,
2013-08-07 21:16:00,72.4,39.2,29.79,WNW,293,4.9,8.3,30,0.00,,,0.00,WUHU216HW,2013-08-08 03:16:00,
2013-08-07 21:19:00,71.8,39.6,29.79,NW,315,5.6,8.3,31,0.00,,,0.00,WUHU216HW,2013-08-08 03:19:00,
2013-08-07 21:20:00,71.6,39.4,29.79,NW,315,4.5,7.6,31,0.00,,,0.00,WUHU216HW,2013-08-08 03:20:00,
2013-08-07 21:21:00,71.6,40.1,29.79,NW,315,4.5,7.6,32,0.00,,,0.00,WUHU216HW,2013-08-08 03:21:00,
2013-08-07 21:24:00,71.3,39.2,29.79,West,270,7.4,7.4,31,0.00,,,0.00,WUHU216HW,2013-08-08 03:24:00,
2013-08-07 21:25:00,71.3,39.9,29.79,West,270,7.2,7.4,32,0.00,,,0.00,WUHU216HW,2013-08-08 03:25:00,
2013-08-07 21:26:00,71.1,39.0,29.79,West,270,6.3,7.4,31,0.00,,,0.00,WUHU216HW,2013-08-08 03:26:00,
2013-08-07 21:29:00,70.9,39.5,29.79,West,270,9.2,11.6,32,0.00,,,0.00,WUHU216HW,2013-08-08 03:29:00,
2013-08-07 21:30:00,70.7,39.3,29.79,West,270,9.2,11.6,32,0.00,,,0.00,WUHU216HW,2013-08-08 03:30:00,
2013-08-07 21:31:00,70.7,39.3,29.79,WNW,293,5.6,11.6,32,0.00,,,0.00,WUHU216HW,2013-08-08 03:31:00,
2013-08-07 21:35:00,70.6,40.0,29.79,West,270,7.2,11.6,33,0.00,,,0.00,WUHU216HW,2013-08-08 03:35:00,
2013-08-07 21:36:00,70.6,40.0,29.79,West,270,5.4,11.6,33,0.00,,,0.00,WUHU216HW,2013-08-08 03:36:00,
2013-08-07 21:40:00,70.2,40.3,29.79,West,270,6.7,8.5,34,0.00,,,0.00,WUHU216HW,2013-08-08 03:40:00,
2013-08-07 21:41:00,70.2,40.3,29.79,WSW,248,7.6,8.5,34,0.00,,,0.00,WUHU216HW,2013-08-08 03:41:00,
2013-08-07 21:42:00,70.2,40.3,29.79,West,270,6.9,8.5,34,0.00,,,0.00,WUHU216HW,2013-08-08 03:42:00,
2013-08-07 21:46:00,69.8,40.1,29.80,West,270,6.9,9.2,34,0.00,,,0.00,WUHU216HW,2013-08-08 03:46:00,
2013-08-07 21:47:00,69.8,40.1,29.80,West,270,8.7,9.2,34,0.00,,,0.00,WUHU216HW,2013-08-08 03:47:00,
2013-08-07 21:51:00,69.7,39.9,29.80,West,270,6.9,9.2,34,0.00,,,0.00,WUHU216HW,2013-08-08 03:51:00,
2013-08-07 21:52:00,69.5,39.7,29.80,West,270,7.2,9.2,34,0.00,,,0.00,WUHU216HW,2013-08-08 03:52:00,
2013-08-07 21:56:00,69.3,40.3,29.80,West,270,8.3,10.1,35,0.00,,,0.00,WUHU216HW,2013-08-08 03:56:00,
2013-08-07 21:57:00,69.1,40.2,29.80,West,270,9.6,10.1,35,0.00,,,0.00,WUHU216HW,2013-08-08 03:57:00,
2013-08-07 22:01:00,68.9,40.0,29.80,West,270,9.2,10.1,35,0.00,,,0.00,WUHU216HW,2013-08-08 04:01:00,
2013-08-07 22:06:00,68.9,40.7,29.80,West,270,7.8,10.7,36,0.00,,,0.00,WUHU216HW,2013-08-08 04:06:00,
2013-08-07 22:11:00,69.1,40.2,29.80,West,270,9.8,11.9,35,0.00,,,0.00,WUHU216HW,2013-08-08 04:11:00,
2013-08-07 22:12:00,69.1,40.2,29.80,West,270,7.6,11.9,35,0.00,,,0.00,WUHU216HW,2013-08-08 04:12:00,
2013-08-07 22:16:00,68.8,41.3,29.80,West,270,10.3,11.9,37,0.00,,,0.00,WUHU216HW,2013-08-08 04:16:00,
2013-08-07 22:17:00,68.9,41.4,29.80,West,270,9.6,11.9,37,0.00,,,0.00,WUHU216HW,2013-08-08 04:17:00,
2013-08-07 22:21:00,68.9,41.4,29.80,West,270,9.2,11.0,37,0.00,,,0.00,WUHU216HW,2013-08-08 04:21:00,
2013-08-07 22:22:00,68.9,41.4,29.80,West,270,8.1,11.0,37,0.00,,,0.00,WUHU216HW,2013-08-08 04:22:00,
2013-08-07 22:23:00,68.9,41.4,29.80,West,270,5.1,11.0,37,0.00,,,0.00,WUHU216HW,2013-08-08 04:23:00,
2013-08-07 22:26:00,68.8,40.5,29.80,West,270,9.8,11.0,36,0.00,,,0.00,WUHU216HW,2013-08-08 04:26:00,
2013-08-07 22:27:00,68.8,41.3,29.80,West,270,8.7,10.1,37,0.00,,,0.00,WUHU216HW,2013-08-08 04:27:00,
2013-08-07 22:28:00,68.6,40.4,29.80,WSW,248,8.3,10.1,36,0.00,,,0.00,WUHU216HW,2013-08-08 04:28:00,
2013-08-07 22:31:00,68.2,40.8,29.80,West,270,8.3,10.1,37,0.00,,,0.00,WUHU216HW,2013-08-08 04:31:00,
2013-08-07 22:32:00,68.0,40.6,29.80,West,270,8.3,10.1,37,0.00,,,0.00,WUHU216HW,2013-08-08 04:32:00,
2013-08-07 22:33:00,68.0,40.6,29.80,WSW,248,8.5,10.1,37,0.00,,,0.00,WUHU216HW,2013-08-08 04:33:00,
2013-08-07 22:36:00,67.9,40.5,29.80,West,270,5.6,10.1,37,0.00,,,0.00,WUHU216HW,2013-08-08 04:36:00,
2013-08-07 22:37:00,67.9,40.5,29.81,WSW,248,6.7,10.1,37,0.00,,,0.00,WUHU216HW,2013-08-08 04:37:00,
2013-08-07 22:38:00,67.9,40.5,29.81,West,270,8.9,10.1,37,0.00,,,0.00,WUHU216HW,2013-08-08 04:38:00,
2013-08-07 22:42:00,67.7,40.3,29.81,West,270,9.2,11.0,37,0.00,,,0.00,WUHU216HW,2013-08-08 04:42:00,
2013-08-07 22:43:00,67.7,40.3,29.81,WSW,248,10.1,11.0,37,0.00,,,0.00,WUHU216HW,2013-08-08 04:43:00,
2013-08-07 22:47:00,67.1,40.6,29.81,West,270,9.2,11.0,38,0.00,,,0.00,WUHU216HW,2013-08-08 04:47:00,
2013-08-07 22:48:00,67.0,40.4,29.81,WSW,248,8.9,11.0,38,0.00,,,0.00,WUHU216HW,2013-08-08 04:48:00,
2013-08-07 22:49:00,66.8,39.5,29.81,WSW,248,9.8,11.0,37,0.00,,,0.00,WUHU216HW,2013-08-08 04:49:00,
2013-08-07 22:52:00,66.6,39.3,29.81,West,270,8.9,10.5,37,0.00,,,0.00,WUHU216HW,2013-08-08 04:52:00,
2013-08-07 22:53:00,66.4,39.3,29.81,West,270,7.6,10.5,37,0.00,,,0.00,WUHU216HW,2013-08-08 04:53:00,
2013-08-07 22:54:00,66.2,39.1,29.81,West,270,8.5,10.5,37,0.00,,,0.00,WUHU216HW,2013-08-08 04:54:00,
2013-08-07 22:57:00,66.1,39.6,29.81,WSW,248,8.7,9.8,38,0.00,,,0.00,WUHU216HW,2013-08-08 04:57:00,
2013-08-07 22:58:00,65.9,39.4,29.81,West,270,9.4,9.8,38,0.00,,,0.00,WUHU216HW,2013-08-08 04:58:00,
2013-08-07 22:59:00,65.9,39.4,29.81,WSW,248,9.2,9.8,38,0.00,,,0.00,WUHU216HW,2013-08-08 04:59:00,
2013-08-07 23:00:00,65.9,39.4,29.81,West,270,10.1,10.1,38,0.00,,,0.00,WUHU216HW,2013-08-08 05:00:00,
2013-08-07 23:02:00,65.9,39.4,29.81,West,270,9.8,10.1,38,0.00,,,0.00,WUHU216HW,2013-08-08 05:02:00,
2013-08-07 23:03:00,65.9,39.4,29.81,West,270,8.1,10.1,38,0.00,,,0.00,WUHU216HW,2013-08-08 05:03:00,
2013-08-07 23:04:00,65.9,39.4,29.81,West,270,6.9,10.1,38,0.00,,,0.00,WUHU216HW,2013-08-08 05:04:00,
2013-08-07 23:05:00,65.9,39.4,29.81,West,270,8.1,10.1,38,0.00,,,0.00,WUHU216HW,2013-08-08 05:05:00,
2013-08-07 23:07:00,65.9,39.4,29.81,West,270,7.6,10.1,38,0.00,,,0.00,WUHU216HW,2013-08-08 05:07:00,
2013-08-07 23:09:00,65.9,40.1,29.81,West,270,5.1,10.1,39,0.00,,,0.00,WUHU216HW,2013-08-08 05:09:00,
2013-08-07 23:10:00,66.1,39.6,29.82,West,270,8.5,9.8,38,0.00,,,0.00,WUHU216HW,2013-08-08 05:10:00,
2013-08-07 23:12:00,66.2,39.8,29.82,West,270,6.9,9.8,38,0.00,,,0.00,WUHU216HW,2013-08-08 05:12:00,
2013-08-07 23:14:00,66.2,39.8,29.81,WSW,248,8.1,9.4,38,0.00,,,0.00,WUHU216HW,2013-08-08 05:14:00,
2013-08-07 23:15:00,66.2,39.1,29.81,West,270,7.8,9.4,37,0.00,,,0.00,WUHU216HW,2013-08-08 05:15:00,
2013-08-07 23:18:00,66.2,39.1,29.81,West,270,5.4,8.9,37,0.00,,,0.00,WUHU216HW,2013-08-08 05:18:00,
2013-08-07 23:19:00,66.2,39.8,29.82,West,270,7.6,8.9,38,0.00,,,0.00,WUHU216HW,2013-08-08 05:19:00,
2013-08-07 23:20:00,66.2,39.1,29.82,West,270,8.5,8.9,37,0.00,,,0.00,WUHU216HW,2013-08-08 05:20:00,
2013-08-07 23:21:00,66.2,39.8,29.82,West,270,7.6,8.9,38,0.00,,,0.00,WUHU216HW,2013-08-08 05:21:00,
2013-08-07 23:23:00,66.2,39.8,29.82,West,270,8.1,8.9,38,0.00,,,0.00,WUHU216HW,2013-08-08 05:23:00,
2013-08-07 23:24:00,66.2,39.8,29.82,West,270,5.4,8.9,38,0.00,,,0.00,WUHU216HW,2013-08-08 05:24:00,
2013-08-07 23:25:00,66.2,39.8,29.82,West,270,6.9,8.7,38,0.00,,,0.00,WUHU216HW,2013-08-08 05:25:00,
2013-08-07 23:26:00,66.2,39.8,29.82,WSW,248,9.8,9.8,38,0.00,,,0.00,WUHU216HW,2013-08-08 05:26:00,
2013-08-07 23:28:00,66.2,39.8,29.82,West,270,9.2,9.8,38,0.00,,,0.00,WUHU216HW,2013-08-08 05:28:00,
2013-08-07 23:29:00,66.2,39.8,29.82,WSW,248,8.3,9.8,38,0.00,,,0.00,WUHU216HW,2013-08-08 05:29:00,
2013-08-07 23:30:00,66.2,39.8,29.82,West,270,6.9,9.8,38,0.00,,,0.00,WUHU216HW,2013-08-08 05:30:00,
2013-08-07 23:31:00,66.1,39.6,29.82,WNW,293,4.0,9.8,38,0.00,,,0.00,WUHU216HW,2013-08-08 05:31:00,
2013-08-07 23:33:00,66.1,39.6,29.82,West,270,8.5,9.8,38,0.00,,,0.00,WUHU216HW,2013-08-08 05:33:00,
2013-08-07 23:34:00,65.9,39.4,29.82,WSW,248,10.3,10.3,38,0.00,,,0.00,WUHU216HW,2013-08-08 05:34:00,
2013-08-07 23:35:00,65.9,39.4,29.82,West,270,8.7,10.3,38,0.00,,,0.00,WUHU216HW,2013-08-08 05:35:00,
2013-08-07 23:36:00,65.9,39.4,29.82,West,270,10.5,12.1,38,0.00,,,0.00,WUHU216HW,2013-08-08 05:36:00,
2013-08-07 23:38:00,66.1,39.6,29.82,West,270,10.5,12.1,38,0.00,,,0.00,WUHU216HW,2013-08-08 05:38:00,
2013-08-07 23:39:00,66.1,39.6,29.81,West,270,11.2,12.1,38,0.00,,,0.00,WUHU216HW,2013-08-08 05:39:00,
2013-08-07 23:40:00,66.1,40.3,29.81,West,270,8.1,12.1,39,0.00,,,0.00,WUHU216HW,2013-08-08 05:40:00,
2013-08-07 23:41:00,66.1,40.3,29.81,West,270,8.1,12.1,39,0.00,,,0.00,WUHU216HW,2013-08-08 05:41:00,
2013-08-07 23:43:00,65.9,40.1,29.81,West,270,6.9,12.1,39,0.00,,,0.00,WUHU216HW,2013-08-08 05:43:00,
2013-08-07 23:45:00,66.1,40.3,29.81,West,270,9.2,12.1,39,0.00,,,0.00,WUHU216HW,2013-08-08 05:45:00,
2013-08-07 23:46:00,66.1,39.6,29.81,West,270,8.7,11.2,38,0.00,,,0.00,WUHU216HW,2013-08-08 05:46:00,
2013-08-07 23:47:00,66.1,40.3,29.81,WNW,293,9.8,11.2,39,0.00,,,0.00,WUHU216HW,2013-08-08 05:47:00,
2013-08-07 23:48:00,66.2,39.8,29.81,West,270,11.6,11.6,38,0.00,,,0.00,WUHU216HW,2013-08-08 05:48:00,
2013-08-07 23:50:00,66.4,40.0,29.81,West,270,8.7,11.6,38,0.00,,,0.00,WUHU216HW,2013-08-08 05:50:00,
2013-08-07 23:51:00,66.4,40.0,29.81,West,270,9.8,11.6,38,0.00,,,0.00,WUHU216HW,2013-08-08 05:51:00,
2013-08-07 23:52:00,66.6,40.2,29.81,WNW,293,8.9,11.6,38,0.00,,,0.00,WUHU216HW,2013-08-08 05:52:00,
2013-08-07 23:54:00,66.8,40.2,29.81,WNW,293,6.7,11.6,38,0.00,,,0.00,WUHU216HW,2013-08-08 05:54:00,
2013-08-07 23:55:00,66.8,40.2,29.81,WNW,293,6.7,11.6,38,0.00,,,0.00,WUHU216HW,2013-08-08 05:55:00,
2013-08-07 23:56:00,66.8,40.2,29.81,WNW,293,6.7,11.6,38,0.00,,,0.00,WUHU216HW,2013-08-08 05:56:00,
2013-08-07 23:57:00,66.6,40.2,29.81,WNW,293,6.3,11.6,38,0.00,,,0.00,WUHU216HW,2013-08-08 05:57:00,
2013-08-07 23:59:00,66.4,40.7,29.81,WNW,293,6.9,10.5,39,0.00,,,0.00,WUHU216HW,2013-08-08 05:59:00,